M I D A S
Marine Information and Data Acquisition System
Tripno 1479 of the Zeeleeuw from 2008-05-05 14:10:10 to 2008-05-05 14:39:50
Back to CruiseResearch ActivitiesStationsMapUnderway DataData graphs

EquipmentUnitsComment
TimeDGPSUTC
LatitudeDGPSDM.mWGS84
LongitudeDGPSDM.mWGS84
TemperatureSBE03/SBE38deg celciusITS90
ConductivitySBE21S/mITS90
SalinitySBE21 Practical Salinity Units
ChlorophylAChelsea fluorimeterg/lCalibrated in Aceton
Missing or incorrect values are displayed as -999
Sea surface data collected by the RV Zeeleeuw from 2008-05-05 09:10:15 to 2008-05-05 14:53:45
                                                                                    Next 1000 lines
Time Latitude Longitude Temperature Conductivity Salinity ChlorophylA
2008-05-05 09:10:25 51°14.599 2°54.009 18.5189 0.099836 0.469054 -1.662225
2008-05-05 09:10:30 51°14.595 2°54.034 18.5065 0.099836 0.469054 -1.662225
2008-05-05 09:10:35 51°14.592 2°54.059 18.4868 0.099836 0.469067 -1.662225
2008-05-05 09:10:40 51°14.588 2°54.084 18.4788 0.099836 0.469081 -1.662225
2008-05-05 09:10:45 51°14.585 2°54.108 18.5152 0.099836 0.469088 -1.662225
2008-05-05 09:10:50 51°14.581 2°54.134 18.4831 0.099836 0.469101 -1.662225
2008-05-05 09:10:55 51°14.578 2°54.159 18.4333 0.099836 0.469114 -1.662225
2008-05-05 09:11:00 51°14.574 2°54.183 18.4763 0.099836 0.469114 -1.662225
2008-05-05 09:11:05 51°14.571 2°54.209 18.4863 0.099836 0.469134 -1.662225
2008-05-05 09:11:10 51°14.567 2°54.234 18.5713 0.099836 0.469148 -1.662225
2008-05-05 09:11:15 51°14.564 2°54.259 18.45 0.099836 0.469175 -1.662225
2008-05-05 09:11:19 51°14.562 2°54.279 18.4149 0.099836 0.469175 -1.662225
2008-05-05 09:11:24 51°14.557 2°54.303 18.4314 0.099836 0.469175 -1.662225
2008-05-05 09:11:30 51°14.552 2°54.333 18.5375 0.099836 0.469181 -1.662225
2008-05-05 09:11:35 51°14.547 2°54.357 18.6199 0.099836 0.469188 -1.662225
2008-05-05 09:11:40 51°14.544 2°54.382 18.553 0.099836 0.469215 -1.662225
2008-05-05 09:11:44 51°14.541 2°54.402 18.6228 0.099836 0.469235 -1.662225
2008-05-05 09:11:50 51°14.537 2°54.431 18.456 0.099836 0.469248 -1.662225
2008-05-05 09:11:55 51°14.533 2°54.456 18.5285 0.099836 0.469255 -1.662225
2008-05-05 09:12:00 51°14.529 2°54.481 18.5192 0.099836 0.469255 -1.662225
2008-05-05 09:12:04 51°14.526 2°54.501 18.4692 0.099836 0.469262 -1.662225
2008-05-05 09:12:10 51°14.521 2°54.529 18.5313 0.099836 0.469269 -1.662225
2008-05-05 09:12:15 51°14.517 2°54.553 18.502 0.099836 0.469282 -1.662225
2008-05-05 09:12:20 51°14.512 2°54.576 18.3438 0.099836 0.469295 -1.662225
2008-05-05 09:12:25 51°14.506 2°54.599 18.5135 0.099836 0.469309 -1.662225
2008-05-05 09:12:30 51°14.5 2°54.621 18.5263 0.099836 0.469309 -1.662225
2008-05-05 09:12:35 51°14.494 2°54.643 18.5528 0.099836 0.469322 -1.662225
2008-05-05 09:12:40 51°14.488 2°54.664 18.5978 0.099836 0.469329 -1.662225
2008-05-05 09:12:45 51°14.481 2°54.686 18.6044 0.099836 0.469349 -1.662225
2008-05-05 09:12:50 51°14.475 2°54.706 18.5657 0.099836 0.469362 -1.662225
2008-05-05 09:12:55 51°14.468 2°54.727 18.5953 0.099836 0.469362 -1.662225
2008-05-05 09:13:00 51°14.462 2°54.746 18.6607 0.099836 0.469383 -1.662225
2008-05-05 09:13:05 51°14.456 2°54.765 18.675 0.099836 0.469396 -1.662225
2008-05-05 09:13:10 51°14.451 2°54.784 18.6651 0.099836 0.469403 -1.662225
2008-05-05 09:13:15 51°14.445 2°54.802 18.6708 0.099836 0.469416 -1.662225
2008-05-05 09:13:19 51°14.441 2°54.816 18.6566 0.099836 0.46943 -1.662225
2008-05-05 09:13:25 51°14.434 2°54.837 18.6707 0.099836 0.469443 -1.662225
2008-05-05 09:13:30 51°14.429 2°54.854 18.6475 0.099836 0.469443 -1.662225
2008-05-05 09:13:35 51°14.423 2°54.871 18.653 0.099836 0.46945 -1.662225
2008-05-05 09:13:39 51°14.419 2°54.884 18.722 0.099836 0.469463 -1.662225
2008-05-05 09:13:44 51°14.414 2°54.901 18.7234 0.099733 0.468975 -1.662225
2008-05-05 09:13:50 51°14.407 2°54.921 18.7336 0.099733 0.468996 -1.662225
2008-05-05 09:13:55 51°14.403 2°54.938 18.6877 0.099733 0.469009 -1.662225
2008-05-05 09:14:00 51°14.397 2°54.955 18.741 0.099733 0.469009 -1.662225
2008-05-05 09:14:04 51°14.393 2°54.968 18.741 0.099733 0.469016 -1.662225
2008-05-05 09:14:10 51°14.387 2°54.989 18.6396 0.099733 0.469029 -1.662225
2008-05-05 09:14:15 51°14.381 2°55.005 18.6803 0.099733 0.469036 -1.662225
2008-05-05 09:14:20 51°14.375 2°55.021 18.6312 0.099733 0.469049 -1.662225
2008-05-05 09:14:25 51°14.368 2°55.038 18.7341 0.099733 0.469069 -1.662225
2008-05-05 09:14:30 51°14.362 2°55.054 18.7433 0.099733 0.469069 -1.662225
2008-05-05 09:14:35 51°14.356 2°55.07 18.7364 0.099733 0.469076 -1.662225
2008-05-05 09:14:40 51°14.35 2°55.086 18.717 0.099733 0.469089 -1.662225
2008-05-05 09:14:45 51°14.343 2°55.102 18.7346 0.099733 0.469103 -1.662225
2008-05-05 09:14:50 51°14.336 2°55.118 18.7465 0.099733 0.46911 -1.662225
2008-05-05 09:14:55 51°14.329 2°55.134 18.7561 0.099733 0.469123 -1.662225
2008-05-05 09:15:00 51°14.322 2°55.15 18.7084 0.099733 0.469123 -1.662225
2008-05-05 09:15:05 51°14.315 2°55.165 18.7219 0.099733 0.469136 -1.662225
2008-05-05 09:15:10 51°14.308 2°55.18 18.719 0.099733 0.46915 -1.662225
2008-05-05 09:15:15 51°14.301 2°55.196 18.747 0.099733 0.469163 -1.662225
2008-05-05 09:15:20 51°14.293 2°55.21 18.7768 0.099733 0.469177 -1.662225
2008-05-05 09:15:25 51°14.285 2°55.225 18.8022 0.099733 0.46919 -1.662225
2008-05-05 09:15:30 51°14.278 2°55.24 18.7593 0.099733 0.46919 -1.662225
2008-05-05 09:15:35 51°14.27 2°55.255 18.7058 0.099733 0.469204 -1.662225
2008-05-05 09:15:39 51°14.264 2°55.266 18.6925 0.099733 0.469217 -1.662225
2008-05-05 09:15:45 51°14.254 2°55.283 18.7059 0.099733 0.46923 -1.662225
2008-05-05 09:15:50 51°14.246 2°55.297 18.7361 0.099733 0.469244 -1.662225
2008-05-05 09:15:55 51°14.237 2°55.31 18.7589 0.099733 0.469251 -1.662225
2008-05-05 09:16:00 51°14.229 2°55.323 18.6796 0.099733 0.469251 -1.662225
2008-05-05 09:16:05 51°14.22 2°55.335 18.7609 0.099733 0.469264 -1.697049
2008-05-05 09:16:10 51°14.211 2°55.347 18.769 0.099733 0.469284 -1.697049
2008-05-05 09:16:15 51°14.201 2°55.358 18.7537 0.099733 0.469291 -1.662225
2008-05-05 09:16:20 51°14.192 2°55.368 18.7436 0.099733 0.469304 -1.662225
2008-05-05 09:16:25 51°14.182 2°55.378 18.787 0.099733 0.469318 -1.662225
2008-05-05 09:16:30 51°14.172 2°55.387 18.8355 0.099733 0.469318 -1.662225
2008-05-05 09:16:35 51°14.162 2°55.397 18.8335 0.099733 0.469331 -1.662225
2008-05-05 09:16:40 51°14.152 2°55.406 18.8331 0.099733 0.469345 -1.697049
2008-05-05 09:16:45 51°14.142 2°55.415 18.7872 0.099733 0.469351 -1.697049
2008-05-05 09:16:50 51°14.133 2°55.423 18.7902 0.099733 0.469371 -1.662225
2008-05-05 09:16:55 51°14.124 2°55.431 18.8188 0.099733 0.469385 -1.697049
2008-05-05 09:17:00 51°14.115 2°55.438 18.8267 0.099733 0.469385 -1.697049
2008-05-05 09:17:05 51°14.106 2°55.445 18.8111 0.099733 0.469398 -1.662225
2008-05-05 09:17:10 51°14.097 2°55.452 18.8151 0.099733 0.469412 -1.662225
2008-05-05 09:17:15 51°14.089 2°55.457 18.8122 0.099733 0.469425 -1.697049
2008-05-05 09:17:20 51°14.081 2°55.463 18.8238 0.099733 0.469439 -1.697049
2008-05-05 09:17:25 51°14.074 2°55.468 18.8266 0.099733 0.469452 -1.697049
2008-05-05 09:17:30 51°14.066 2°55.473 18.8137 0.099733 0.469452 -1.697049
2008-05-05 09:17:35 51°14.059 2°55.478 18.8242 0.09963 0.468964 -1.697049
2008-05-05 09:17:40 51°14.053 2°55.483 18.86 0.09963 0.468977 -1.697049
2008-05-05 09:17:45 51°14.046 2°55.488 18.8716 0.09963 0.468991 -1.662225
2008-05-05 09:17:50 51°14.04 2°55.492 18.8867 0.09963 0.468997 -1.697049
2008-05-05 09:17:55 51°14.034 2°55.496 18.8969 0.09963 0.469018 -1.697049
2008-05-05 09:18:00 51°14.028 2°55.501 18.8993 0.09963 0.469018 -1.697049
2008-05-05 09:18:05 51°14.022 2°55.505 18.9113 0.09963 0.469024 -1.697049
2008-05-05 09:18:10 51°14.016 2°55.51 18.9187 0.09963 0.469038 -1.662225
2008-05-05 09:18:15 51°14.01 2°55.514 18.9242 0.09963 0.469051 -1.697049
2008-05-05 09:18:20 51°14.004 2°55.518 18.9105 0.09963 0.469065 -1.662225
2008-05-05 09:18:25 51°13.998 2°55.522 18.9057 0.09963 0.469065 -1.662225
2008-05-05 09:18:30 51°13.992 2°55.526 18.9261 0.09963 0.469071 -1.697049
2008-05-05 09:18:35 51°13.986 2°55.53 18.9547 0.09963 0.469092 -1.697049
2008-05-05 09:18:40 51°13.98 2°55.534 18.9555 0.09963 0.469105 -1.662225
2008-05-05 09:18:45 51°13.974 2°55.538 18.958 0.09963 0.469118 -1.697049
2008-05-05 09:18:50 51°13.968 2°55.543 18.9505 0.09963 0.469132 -1.662225
2008-05-05 09:18:55 51°13.961 2°55.547 18.948 0.09963 0.469145 -1.697049
2008-05-05 09:19:00 51°13.955 2°55.552 18.932 0.09963 0.469145 -1.697049
2008-05-05 09:19:05 51°13.948 2°55.557 18.9315 0.09963 0.469152 -1.662225
2008-05-05 09:19:10 51°13.942 2°55.561 18.9508 0.09963 0.469165 -1.697049
2008-05-05 09:19:15 51°13.935 2°55.566 18.9732 0.09963 0.469179 -1.697049
2008-05-05 09:19:20 51°13.928 2°55.57 18.978 0.09963 0.469192 -1.697049
2008-05-05 09:19:25 51°13.922 2°55.575 18.9796 0.09963 0.469213 -1.697049
2008-05-05 09:19:30 51°13.915 2°55.58 18.9715 0.09963 0.469213 -1.697049
2008-05-05 09:19:35 51°13.908 2°55.584 18.975 0.09963 0.469226 -1.697049
2008-05-05 09:19:40 51°13.901 2°55.589 18.9795 0.09963 0.469233 -1.662225
2008-05-05 09:19:45 51°13.894 2°55.594 18.9983 0.09963 0.469246 -1.697049
2008-05-05 09:19:50 51°13.887 2°55.598 19.004 0.09963 0.469266 -1.697049
2008-05-05 09:19:55 51°13.88 2°55.603 19.0197 0.09963 0.46928 -1.697049
2008-05-05 09:20:00 51°13.873 2°55.608 19.0172 0.09963 0.46928 -1.697049
2008-05-05 09:20:05 51°13.866 2°55.613 19.0243 0.09963 0.469293 -1.697049
2008-05-05 09:20:10 51°13.859 2°55.617 19.0197 0.09963 0.4693 -1.697049
2008-05-05 09:20:15 51°13.852 2°55.622 19.0197 0.09963 0.469313 -1.697049
2008-05-05 09:20:19 51°13.847 2°55.626 19.043 0.09963 0.469334 -1.697049
2008-05-05 09:20:24 51°13.84 2°55.631 19.0197 0.09963 0.46934 -1.697049
2008-05-05 09:20:30 51°13.832 2°55.637 19.0372 0.09963 0.46934 -1.697049
2008-05-05 09:20:35 51°13.825 2°55.642 19.0341 0.09963 0.469354 -1.697049
2008-05-05 09:20:40 51°13.818 2°55.647 19.0386 0.09963 0.469367 -1.697049
2008-05-05 09:20:45 51°13.812 2°55.651 19.0466 0.09963 0.469374 -1.697049
2008-05-05 09:20:50 51°13.805 2°55.656 19.025 0.09963 0.469387 -1.697049
2008-05-05 09:20:55 51°13.799 2°55.66 19.0802 0.09963 0.469408 -1.697049
2008-05-05 09:21:00 51°13.794 2°55.665 19.0911 0.09963 0.469408 -1.697049
2008-05-05 09:21:05 51°13.788 2°55.67 19.1017 0.09963 0.469421 -1.697049
2008-05-05 09:21:10 51°13.783 2°55.675 19.1147 0.09963 0.469435 -1.697049
2008-05-05 09:21:15 51°13.778 2°55.68 19.1179 0.09963 0.469448 -1.697049
2008-05-05 09:21:20 51°13.773 2°55.686 19.1155 0.09963 0.469461 -1.697049
2008-05-05 09:21:25 51°13.769 2°55.692 19.1248 0.099527 0.468973 -1.697049
2008-05-05 09:21:30 51°13.764 2°55.697 19.1295 0.099527 0.468973 -1.697049
2008-05-05 09:21:35 51°13.761 2°55.703 19.1373 0.099527 0.468986 -1.697049
2008-05-05 09:21:40 51°13.757 2°55.71 19.1523 0.099527 0.469 -1.697049
2008-05-05 09:21:45 51°13.754 2°55.716 19.138 0.099527 0.469013 -1.697049
2008-05-05 09:21:50 51°13.75 2°55.722 19.1417 0.099527 0.469027 -1.697049
2008-05-05 09:21:55 51°13.747 2°55.729 19.1312 0.099527 0.469033 -1.697049
2008-05-05 09:22:00 51°13.745 2°55.736 19.1311 0.099527 0.469033 -1.697049
2008-05-05 09:22:05 51°13.742 2°55.742 19.1042 0.099527 0.469047 -1.697049
2008-05-05 09:22:10 51°13.739 2°55.749 19.111 0.099527 0.469053 -1.697049
2008-05-05 09:22:15 51°13.736 2°55.756 19.1082 0.099527 0.46906 -1.697049
2008-05-05 09:22:20 51°13.733 2°55.762 19.1239 0.099527 0.469074 -1.697049
2008-05-05 09:22:25 51°13.73 2°55.769 19.1 0.099527 0.46908 -1.697049
2008-05-05 09:22:30 51°13.727 2°55.775 19.1166 0.099527 0.46908 -1.697049
2008-05-05 09:22:35 51°13.725 2°55.782 19.0881 0.099527 0.469094 -1.697049
2008-05-05 09:22:40 51°13.722 2°55.789 19.1216 0.099527 0.469107 -1.697049
2008-05-05 09:22:45 51°13.719 2°55.795 19.127 0.099527 0.469114 -1.697049
2008-05-05 09:22:50 51°13.717 2°55.802 19.178 0.099527 0.469128 -1.697049
2008-05-05 09:22:55 51°13.714 2°55.809 19.1803 0.099527 0.469141 -1.697049
2008-05-05 09:22:59 51°13.713 2°55.815 19.1724 0.099527 0.469141 -1.697049
2008-05-05 09:23:05 51°13.71 2°55.823 19.189 0.099527 0.469154 -1.697049
2008-05-05 09:23:10 51°13.708 2°55.83 19.185 0.099527 0.469161 -1.697049
2008-05-05 09:23:15 51°13.706 2°55.837 19.1855 0.099527 0.469181 -1.697049
2008-05-05 09:23:20 51°13.703 2°55.845 19.1829 0.099527 0.469188 -1.697049
2008-05-05 09:23:24 51°13.702 2°55.85 19.193 0.099527 0.469208 -1.697049
2008-05-05 09:23:30 51°13.699 2°55.859 19.2061 0.099527 0.469208 -1.697049
2008-05-05 09:23:35 51°13.697 2°55.866 19.2165 0.099527 0.469222 -1.697049
2008-05-05 09:23:40 51°13.695 2°55.873 19.1832 0.099527 0.469235 -1.697049
2008-05-05 09:23:45 51°13.693 2°55.88 19.1797 0.099527 0.469249 -1.697049
2008-05-05 09:23:50 51°13.691 2°55.886 19.1657 0.099527 0.469255 -1.697049
2008-05-05 09:23:55 51°13.689 2°55.893 19.1745 0.099527 0.469269 -1.697049
2008-05-05 09:24:00 51°13.687 2°55.899 19.2104 0.099527 0.469269 -1.697049
2008-05-05 09:24:05 51°13.685 2°55.904 19.2151 0.099527 0.469276 -1.697049
2008-05-05 09:24:10 51°13.683 2°55.91 19.2285 0.099527 0.469289 -1.697049
2008-05-05 09:24:15 51°13.681 2°55.916 19.2259 0.099527 0.469303 -1.697049
2008-05-05 09:24:20 51°13.679 2°55.921 19.198 0.099527 0.469309 -1.697049
2008-05-05 09:24:25 51°13.677 2°55.926 19.1723 0.099527 0.469323 -1.697049
2008-05-05 09:24:30 51°13.676 2°55.931 19.216 0.099527 0.469323 -1.697049
2008-05-05 09:24:35 51°13.675 2°55.934 19.2187 0.099527 0.469336 -1.697049
2008-05-05 09:24:40 51°13.673 2°55.938 19.2343 0.099527 0.469343 -1.697049
2008-05-05 09:24:45 51°13.672 2°55.941 19.2635 0.099527 0.469363 -1.697049
2008-05-05 09:24:50 51°13.672 2°55.943 19.2284 0.099527 0.469377 -1.697049
2008-05-05 09:24:55 51°13.671 2°55.945 19.2575 0.099527 0.46939 -1.697049
2008-05-05 09:24:59 51°13.671 2°55.946 19.2513 0.099527 0.46939 -1.697049
2008-05-05 09:25:04 51°13.67 2°55.947 19.2864 0.099527 0.469397 -1.662225
2008-05-05 09:25:10 51°13.669 2°55.949 19.2701 0.099527 0.46941 -1.697049
2008-05-05 09:25:15 51°13.668 2°55.95 19.2773 0.099527 0.469417 -1.697049
2008-05-05 09:25:20 51°13.668 2°55.951 19.2638 0.099527 0.469431 -1.697049
2008-05-05 09:25:24 51°13.667 2°55.952 19.2649 0.099527 0.469444 -1.697049
2008-05-05 09:25:30 51°13.667 2°55.953 19.2288 0.099527 0.469444 -1.697049
2008-05-05 09:25:35 51°13.666 2°55.953 19.2776 0.099424 0.468948 -1.697049
2008-05-05 09:25:40 51°13.666 2°55.954 19.3015 0.099424 0.468962 -1.697049
2008-05-05 09:25:45 51°13.665 2°55.955 19.29 0.099424 0.468968 -1.697049
2008-05-05 09:25:50 51°13.666 2°55.955 19.3 0.099424 0.468982 -1.697049
2008-05-05 09:25:55 51°13.666 2°55.955 19.2578 0.099424 0.468995 -1.697049
2008-05-05 09:26:00 51°13.666 2°55.955 19.229 0.099424 0.468995 -1.697049
2008-05-05 09:26:05 51°13.666 2°55.954 19.329 0.099424 0.469002 -1.697049
2008-05-05 09:26:10 51°13.666 2°55.955 19.312 0.099424 0.469022 -1.697049
2008-05-05 09:26:15 51°13.666 2°55.955 19.3647 0.099424 0.469029 -1.697049
2008-05-05 09:26:20 51°13.666 2°55.955 19.3251 0.099424 0.469042 -1.697049
2008-05-05 09:26:25 51°13.666 2°55.955 19.3175 0.099424 0.469049 -1.697049
2008-05-05 09:26:30 51°13.666 2°55.955 19.2915 0.099424 0.469049 -1.697049
2008-05-05 09:26:35 51°13.666 2°55.955 19.315 0.099424 0.469056 -1.697049
2008-05-05 09:26:40 51°13.666 2°55.955 19.292 0.099424 0.469069 -1.697049
2008-05-05 09:26:45 51°13.666 2°55.955 19.3284 0.099424 0.469083 -1.697049
2008-05-05 09:26:50 51°13.666 2°55.955 19.3415 0.099424 0.46909 -1.697049
2008-05-05 09:26:55 51°13.666 2°55.955 19.3631 0.099424 0.469096 -1.697049
2008-05-05 09:27:00 51°13.667 2°55.955 19.3742 0.099424 0.469096 -1.697049
2008-05-05 09:27:05 51°13.667 2°55.955 19.3717 0.099424 0.46911 -1.697049
2008-05-05 09:27:10 51°13.667 2°55.955 19.305 0.099424 0.469123 -1.697049
2008-05-05 09:27:15 51°13.667 2°55.955 19.3344 0.099424 0.46913 -1.697049
2008-05-05 09:27:19 51°13.667 2°55.955 19.2914 0.099424 0.46915 -1.697049
2008-05-05 09:27:25 51°13.667 2°55.955 19.2928 0.099424 0.469157 -1.697049
2008-05-05 09:27:30 51°13.667 2°55.955 19.3137 0.099424 0.469157 -1.697049
2008-05-05 09:27:35 51°13.667 2°55.955 19.301 0.099424 0.469171 -1.697049
2008-05-05 09:27:40 51°13.667 2°55.955 19.2438 0.099424 0.469177 -1.697049
2008-05-05 09:27:44 51°13.667 2°55.955 19.2666 0.099424 0.469191 -1.697049
2008-05-05 09:27:50 51°13.667 2°55.954 19.3097 0.099424 0.469204 -1.697049
2008-05-05 09:27:55 51°13.667 2°55.955 19.2861 0.099424 0.469211 -1.697049
2008-05-05 09:28:00 51°13.667 2°55.955 19.2878 0.099424 0.469211 -1.697049
2008-05-05 09:28:05 51°13.667 2°55.955 19.2832 0.099424 0.469225 -1.697049
2008-05-05 09:28:10 51°13.667 2°55.955 19.3066 0.099424 0.469238 -1.697049
2008-05-05 09:28:15 51°13.667 2°55.955 19.3411 0.099424 0.469251 -1.697049
2008-05-05 09:28:20 51°13.667 2°55.955 19.3639 0.099424 0.469265 -1.697049
2008-05-05 09:28:25 51°13.667 2°55.955 19.3782 0.099424 0.469272 -1.697049
2008-05-05 09:28:30 51°13.667 2°55.955 19.379 0.099424 0.469272 -1.697049
2008-05-05 09:28:35 51°13.667 2°55.955 19.3663 0.099424 0.469285 -1.697049
2008-05-05 09:28:40 51°13.667 2°55.955 19.374 0.099424 0.469292 -1.697049
2008-05-05 09:28:45 51°13.667 2°55.955 19.3726 0.099424 0.469305 -1.697049
2008-05-05 09:28:50 51°13.667 2°55.955 19.3815 0.099424 0.469312 -1.697049
2008-05-05 09:28:55 51°13.668 2°55.955 19.3843 0.099424 0.469319 -1.697049
2008-05-05 09:29:00 51°13.668 2°55.955 19.4112 0.099424 0.469319 -1.697049
2008-05-05 09:29:05 51°13.668 2°55.955 19.3419 0.099424 0.469326 -1.697049
2008-05-05 09:29:10 51°13.668 2°55.955 19.3795 0.099424 0.469339 -1.697049
2008-05-05 09:29:15 51°13.668 2°55.955 19.4072 0.099424 0.469353 -1.697049
2008-05-05 09:29:20 51°13.668 2°55.955 19.3812 0.099424 0.469353 -1.697049
2008-05-05 09:29:25 51°13.668 2°55.955 19.4239 0.099424 0.469373 -1.697049
2008-05-05 09:29:30 51°13.668 2°55.956 19.4405 0.099424 0.469373 -1.697049
2008-05-05 09:29:35 51°13.668 2°55.956 19.4401 0.099424 0.469386 -1.697049
2008-05-05 09:29:40 51°13.668 2°55.955 19.4577 0.099424 0.469393 -1.697049
2008-05-05 09:29:45 51°13.668 2°55.956 19.457 0.099424 0.469413 -1.697049
2008-05-05 09:29:50 51°13.668 2°55.956 19.4421 0.099321 0.468917 -1.697049
2008-05-05 09:29:55 51°13.668 2°55.956 19.4655 0.099321 0.46893 -1.697049
2008-05-05 09:30:00 51°13.668 2°55.955 19.4703 0.099321 0.46893 -1.697049
2008-05-05 09:30:05 51°13.668 2°55.955 19.471 0.099424 0.46944 -1.697049
2008-05-05 09:30:10 51°13.668 2°55.955 19.4751 0.099321 0.468951 -1.697049
2008-05-05 09:30:15 51°13.668 2°55.955 19.474 0.099321 0.468964 -1.697049
2008-05-05 09:30:20 51°13.668 2°55.955 19.4744 0.099321 0.468971 -1.697049
2008-05-05 09:30:25 51°13.668 2°55.955 19.4761 0.099321 0.468978 -1.697049
2008-05-05 09:30:30 51°13.668 2°55.955 19.4818 0.099321 0.468978 -1.697049
2008-05-05 09:30:35 51°13.668 2°55.955 19.4852 0.099321 0.468991 -1.697049
2008-05-05 09:30:40 51°13.668 2°55.955 19.4832 0.099321 0.468998 -1.697049
2008-05-05 09:30:45 51°13.668 2°55.955 19.4703 0.099321 0.469011 -1.697049
2008-05-05 09:30:50 51°13.668 2°55.955 19.4676 0.099321 0.469018 -1.697049
2008-05-05 09:30:55 51°13.668 2°55.955 19.4775 0.099321 0.469032 -1.697049
2008-05-05 09:31:00 51°13.668 2°55.955 19.4934 0.099321 0.469032 -1.697049
2008-05-05 09:31:05 51°13.668 2°55.955 19.4607 0.099321 0.469045 -1.697049
2008-05-05 09:31:10 51°13.668 2°55.955 19.3843 0.099321 0.469052 -1.697049
2008-05-05 09:31:15 51°13.667 2°55.955 19.408 0.099321 0.469065 -1.697049
2008-05-05 09:31:19 51°13.667 2°55.955 19.4213 0.099321 0.469079 -1.697049
2008-05-05 09:31:25 51°13.667 2°55.955 19.4665 0.099321 0.469086 -1.697049
2008-05-05 09:31:30 51°13.667 2°55.955 19.4799 0.099321 0.469086 -1.697049
2008-05-05 09:31:35 51°13.667 2°55.955 19.4649 0.099321 0.469099 -1.697049
2008-05-05 09:31:39 51°13.667 2°55.955 19.4034 0.099321 0.469106 -1.697049
2008-05-05 09:31:45 51°13.667 2°55.955 19.4748 0.099321 0.469119 -1.731873
2008-05-05 09:31:50 51°13.667 2°55.955 19.3864 0.099321 0.469126 -1.697049
2008-05-05 09:31:55 51°13.667 2°55.955 19.4771 0.099321 0.469133 -1.731873
2008-05-05 09:32:00 51°13.667 2°55.955 19.4841 0.099321 0.469133 -1.731873
2008-05-05 09:32:05 51°13.667 2°55.955 19.493 0.099321 0.469153 -1.697049
2008-05-05 09:32:10 51°13.667 2°55.955 19.4369 0.099321 0.46916 -1.731873
2008-05-05 09:32:15 51°13.667 2°55.955 19.4736 0.099321 0.469173 -1.697049
2008-05-05 09:32:20 51°13.666 2°55.955 19.3614 0.099321 0.46918 -1.697049
2008-05-05 09:32:25 51°13.666 2°55.955 19.4174 0.099321 0.469194 -1.697049
2008-05-05 09:32:30 51°13.666 2°55.955 19.4335 0.099321 0.469194 -1.697049
2008-05-05 09:32:35 51°13.666 2°55.955 19.4337 0.099321 0.4692 -1.697049
2008-05-05 09:32:40 51°13.667 2°55.955 19.415 0.099321 0.469214 -1.697049
2008-05-05 09:32:44 51°13.667 2°55.955 19.4685 0.099321 0.469227 -1.697049
2008-05-05 09:32:50 51°13.667 2°55.955 19.4847 0.099321 0.469241 -1.697049
2008-05-05 09:32:55 51°13.667 2°55.955 19.4992 0.099321 0.469248 -1.697049
2008-05-05 09:33:00 51°13.667 2°55.955 19.5013 0.099321 0.469248 -1.697049
2008-05-05 09:33:05 51°13.667 2°55.955 19.5362 0.099321 0.469254 -1.697049
2008-05-05 09:33:10 51°13.667 2°55.955 19.5488 0.099321 0.469268 -1.697049
2008-05-05 09:33:15 51°13.667 2°55.955 19.5461 0.099321 0.469282 -1.731873
2008-05-05 09:33:20 51°13.667 2°55.955 19.5258 0.099321 0.469288 -1.731873
2008-05-05 09:33:25 51°13.667 2°55.955 19.4787 0.099321 0.469302 -1.697049
2008-05-05 09:33:30 51°13.667 2°55.955 19.5027 0.099321 0.469302 -1.697049
2008-05-05 09:33:35 51°13.667 2°55.955 19.5613 0.099321 0.469309 -1.731873
2008-05-05 09:33:40 51°13.667 2°55.955 19.5573 0.099321 0.469322 -1.697049
2008-05-05 09:33:45 51°13.667 2°55.955 19.5503 0.099321 0.469329 -1.697049
2008-05-05 09:33:50 51°13.667 2°55.955 19.5369 0.099321 0.469342 -1.697049
2008-05-05 09:33:55 51°13.667 2°55.955 19.5449 0.099321 0.469349 -1.697049
2008-05-05 09:34:00 51°13.667 2°55.955 19.4952 0.099321 0.469349 -1.697049
2008-05-05 09:34:05 51°13.667 2°55.955 19.5462 0.099321 0.469363 -1.697049
2008-05-05 09:34:10 51°13.667 2°55.955 19.5446 0.099321 0.469369 -1.731873
2008-05-05 09:34:15 51°13.667 2°55.955 19.5487 0.099321 0.469383 -1.731873
2008-05-05 09:34:20 51°13.666 2°55.955 19.5222 0.099321 0.469396 -1.697049
2008-05-05 09:34:25 51°13.666 2°55.955 19.5708 0.099218 0.468899 -1.697049
2008-05-05 09:34:30 51°13.666 2°55.955 19.5952 0.099218 0.468899 -1.697049
2008-05-05 09:34:35 51°13.666 2°55.955 19.5981 0.099218 0.468913 -1.697049
2008-05-05 09:34:40 51°13.667 2°55.956 19.608 0.099218 0.46892 -1.697049
2008-05-05 09:34:45 51°13.666 2°55.955 19.5929 0.099218 0.468933 -1.697049
2008-05-05 09:34:50 51°13.666 2°55.955 19.5982 0.099218 0.46894 -1.697049
2008-05-05 09:34:55 51°13.666 2°55.955 19.602 0.099218 0.468953 -1.697049
2008-05-05 09:35:00 51°13.666 2°55.955 19.5866 0.099218 0.468953 -1.697049
2008-05-05 09:35:05 51°13.666 2°55.955 19.6005 0.099218 0.46896 -1.697049
2008-05-05 09:35:10 51°13.666 2°55.955 19.5807 0.099218 0.468974 -1.697049
2008-05-05 09:35:15 51°13.666 2°55.956 19.5895 0.099218 0.468987 -1.697049
2008-05-05 09:35:20 51°13.666 2°55.956 19.5537 0.099218 0.468994 -1.697049
2008-05-05 09:35:25 51°13.666 2°55.956 19.5548 0.099218 0.469008 -1.697049
2008-05-05 09:35:30 51°13.666 2°55.956 20.1056 0.099218 0.469008 -1.697049
2008-05-05 09:35:35 51°13.666 2°55.956 19.7697 0.099218 0.469014 -0.7568
2008-05-05 09:35:40 51°13.666 2°55.956 19.7104 0.099218 0.469021 -1.035392
2008-05-05 09:35:45 51°13.666 2°55.956 19.7221 0.099218 0.469035 -1.383633
2008-05-05 09:35:50 51°13.667 2°55.956 19.7224 0.099218 0.469041 -1.453281
2008-05-05 09:35:55 51°13.667 2°55.956 19.7246 0.099218 0.469055 -1.488105
2008-05-05 09:36:00 51°13.667 2°55.956 19.7258 0.099218 0.469055 -1.488105
2008-05-05 09:36:05 51°13.667 2°55.956 19.7262 0.099218 0.469068 -1.488105
2008-05-05 09:36:10 51°13.667 2°55.956 19.7272 0.099218 0.469082 -1.522929
2008-05-05 09:36:15 51°13.666 2°55.956 19.7265 0.099218 0.469082 -1.488105
2008-05-05 09:36:20 51°13.666 2°55.955 19.7267 0.099218 0.469095 -1.488105
2008-05-05 09:36:25 51°13.666 2°55.955 19.7279 0.099218 0.469109 -1.522929
2008-05-05 09:36:30 51°13.666 2°55.955 19.7282 0.099218 0.469109 -1.522929
2008-05-05 09:36:35 51°13.666 2°55.955 19.729 0.099218 0.469116 -1.522929
2008-05-05 09:36:40 51°13.666 2°55.955 19.7287 0.099218 0.469129 -1.522929
2008-05-05 09:36:45 51°13.665 2°55.955 19.7291 0.099218 0.469136 -1.522929
2008-05-05 09:36:50 51°13.665 2°55.955 19.7303 0.099218 0.469149 -1.522929
2008-05-05 09:36:55 51°13.665 2°55.955 19.7315 0.099218 0.469156 -1.522929
2008-05-05 09:37:00 51°13.666 2°55.955 19.7325 0.099218 0.469156 -1.522929
2008-05-05 09:37:05 51°13.666 2°55.955 19.7334 0.099218 0.46917 -1.522929
2008-05-05 09:37:10 51°13.666 2°55.955 19.737 0.099218 0.469177 -1.522929
2008-05-05 09:37:15 51°13.666 2°55.955 19.7395 0.099218 0.469183 -1.522929
2008-05-05 09:37:20 51°13.665 2°55.955 19.739 0.099218 0.469197 -1.522929
2008-05-05 09:37:25 51°13.665 2°55.955 19.7403 0.099218 0.469204 -1.522929
2008-05-05 09:37:30 51°13.665 2°55.955 19.741 0.099218 0.469204 -1.522929
2008-05-05 09:37:35 51°13.665 2°55.955 19.7423 0.099218 0.469217 -1.522929
2008-05-05 09:37:40 51°13.665 2°55.955 19.7423 0.099218 0.469231 -1.522929
2008-05-05 09:37:45 51°13.665 2°55.954 19.743 0.099218 0.469237 -1.522929
2008-05-05 09:37:50 51°13.665 2°55.954 19.7429 0.099218 0.469251 -1.522929
2008-05-05 09:37:55 51°13.665 2°55.954 19.7426 0.099218 0.469264 -1.522929
2008-05-05 09:38:00 51°13.665 2°55.954 19.7452 0.099218 0.469264 -1.522929
2008-05-05 09:38:05 51°13.665 2°55.954 19.7469 0.099218 0.469271 -1.522929
2008-05-05 09:38:10 51°13.665 2°55.954 19.7478 0.099218 0.469278 -1.522929
2008-05-05 09:38:15 51°13.665 2°55.954 19.748 0.099218 0.469292 -1.522929
2008-05-05 09:38:20 51°13.665 2°55.954 19.749 0.099218 0.469298 -1.522929
2008-05-05 09:38:25 51°13.665 2°55.954 19.7498 0.099218 0.469305 -1.522929
2008-05-05 09:38:30 51°13.665 2°55.954 19.7499 0.099218 0.469305 -1.522929
2008-05-05 09:38:35 51°13.665 2°55.954 19.75 0.099218 0.469319 -1.522929
2008-05-05 09:38:40 51°13.665 2°55.954 19.7514 0.099218 0.469325 -1.522929
2008-05-05 09:38:44 51°13.665 2°55.954 19.7534 0.099218 0.469339 -1.522929
2008-05-05 09:38:50 51°13.665 2°55.954 19.7545 0.099218 0.469346 -1.522929
2008-05-05 09:38:55 51°13.665 2°55.955 19.7553 0.099218 0.469366 -1.522929
2008-05-05 09:39:00 51°13.665 2°55.955 19.7556 0.099218 0.469366 -1.522929
2008-05-05 09:39:04 51°13.666 2°55.955 19.7567 0.099218 0.469366 -1.522929
2008-05-05 09:39:10 51°13.666 2°55.954 19.7583 0.099218 0.469386 -1.522929
2008-05-05 09:39:15 51°13.666 2°55.955 19.7592 0.099115 0.468889 -1.522929
2008-05-05 09:39:20 51°13.666 2°55.955 19.7604 0.099115 0.468896 -1.522929
2008-05-05 09:39:25 51°13.666 2°55.955 19.7614 0.099115 0.468909 -1.522929
2008-05-05 09:39:30 51°13.666 2°55.955 19.7617 0.099115 0.468909 -1.522929
2008-05-05 09:39:35 51°13.666 2°55.954 19.7623 0.099115 0.468916 -1.522929
2008-05-05 09:39:40 51°13.666 2°55.955 19.7634 0.099115 0.468929 -1.522929
2008-05-05 09:39:45 51°13.666 2°55.954 19.7634 0.099115 0.468936 -1.522929
2008-05-05 09:39:50 51°13.667 2°55.954 19.7643 0.099115 0.46895 -1.522929
2008-05-05 09:39:55 51°13.667 2°55.955 19.765 0.099115 0.468956 -1.522929
2008-05-05 09:40:00 51°13.667 2°55.955 19.7662 0.099115 0.468956 -1.522929
2008-05-05 09:40:05 51°13.667 2°55.954 19.766 0.099115 0.46897 -1.522929
2008-05-05 09:40:10 51°13.667 2°55.955 19.7667 0.099115 0.468977 -1.522929
2008-05-05 09:40:15 51°13.667 2°55.955 19.767 0.099115 0.46899 -1.522929
2008-05-05 09:40:19 51°13.667 2°55.955 19.765 0.099115 0.468997 -1.522929
2008-05-05 09:40:25 51°13.667 2°55.955 19.7628 0.099115 0.469004 -1.522929
2008-05-05 09:40:30 51°13.667 2°55.955 19.7628 0.099115 0.469004 -1.522929
2008-05-05 09:40:35 51°13.667 2°55.955 19.7645 0.099115 0.469017 -1.522929
2008-05-05 09:40:40 51°13.667 2°55.955 19.7665 0.099115 0.469024 -1.522929
2008-05-05 09:40:45 51°13.667 2°55.955 19.7682 0.099115 0.469038 -1.522929
2008-05-05 09:40:50 51°13.667 2°55.955 19.7696 0.099115 0.469044 -1.522929
2008-05-05 09:40:55 51°13.667 2°55.955 19.7714 0.099115 0.469058 -1.522929
2008-05-05 09:41:00 51°13.667 2°55.955 19.7722 0.099115 0.469058 -1.522929
2008-05-05 09:41:04 51°13.667 2°55.955 19.7735 0.099115 0.469065 -1.522929
2008-05-05 09:41:10 51°13.667 2°55.955 19.7741 0.099115 0.469078 -1.488105
2008-05-05 09:41:15 51°13.667 2°55.955 19.774 0.099115 0.469085 -1.522929
2008-05-05 09:41:20 51°13.667 2°55.955 19.7735 0.099115 0.469099 -1.488105
2008-05-05 09:41:25 51°13.667 2°55.955 19.7736 0.099115 0.469105 -1.522929
2008-05-05 09:41:30 51°13.667 2°55.955 19.7735 0.099115 0.469105 -1.522929
2008-05-05 09:41:35 51°13.667 2°55.955 19.7749 0.099115 0.469119 -1.488105
2008-05-05 09:41:40 51°13.667 2°55.955 19.7766 0.099115 0.469132 -1.522929
2008-05-05 09:41:45 51°13.667 2°55.955 19.7763 0.099115 0.469139 -1.522929
2008-05-05 09:41:50 51°13.666 2°55.955 19.7762 0.099115 0.469146 -1.522929
2008-05-05 09:41:55 51°13.666 2°55.955 19.7773 0.099115 0.469153 -1.522929
2008-05-05 09:42:00 51°13.666 2°55.955 19.7787 0.099115 0.469153 -1.522929
2008-05-05 09:42:05 51°13.666 2°55.955 19.7793 0.099115 0.469173 -1.522929
2008-05-05 09:42:10 51°13.666 2°55.955 19.7796 0.099115 0.469173 -1.522929
2008-05-05 09:42:15 51°13.666 2°55.955 19.7809 0.099115 0.469187 -1.522929
2008-05-05 09:42:20 51°13.666 2°55.955 19.7797 0.099115 0.469193 -1.488105
2008-05-05 09:42:25 51°13.667 2°55.955 19.7801 0.099115 0.469207 -1.488105
2008-05-05 09:42:30 51°13.667 2°55.955 19.7813 0.099115 0.469207 -1.488105
2008-05-05 09:42:35 51°13.667 2°55.955 19.7819 0.099115 0.469214 -1.488105
2008-05-05 09:42:39 51°13.667 2°55.955 19.7829 0.099115 0.469227 -1.522929
2008-05-05 09:42:45 51°13.667 2°55.955 19.7826 0.099115 0.469234 -1.522929
2008-05-05 09:42:50 51°13.667 2°55.955 19.7841 0.099115 0.469248 -1.522929
2008-05-05 09:42:55 51°13.667 2°55.955 19.7847 0.099115 0.469261 -1.522929
2008-05-05 09:43:00 51°13.667 2°55.955 19.7857 0.099115 0.469261 -1.522929
2008-05-05 09:43:05 51°13.667 2°55.955 19.7872 0.099115 0.469268 -1.522929
2008-05-05 09:43:10 51°13.667 2°55.955 19.7884 0.099115 0.469275 -1.522929
2008-05-05 09:43:15 51°13.667 2°55.955 19.7867 0.099115 0.469288 -1.522929
2008-05-05 09:43:20 51°13.667 2°55.955 19.7864 0.099115 0.469295 -1.522929
2008-05-05 09:43:24 51°13.667 2°55.955 19.7879 0.099115 0.469302 -1.488105
2008-05-05 09:43:30 51°13.667 2°55.955 19.7877 0.099115 0.469302 -1.488105
2008-05-05 09:43:35 51°13.667 2°55.955 19.7875 0.099115 0.469315 -1.522929
2008-05-05 09:43:40 51°13.667 2°55.955 19.7879 0.099116 0.469329 -1.488105
2008-05-05 09:43:45 51°13.667 2°55.955 19.7873 0.099116 0.469329 -1.522929
2008-05-05 09:43:50 51°13.667 2°55.955 19.7889 0.099116 0.469342 -1.522929
2008-05-05 09:43:55 51°13.666 2°55.955 19.7901 0.099116 0.469349 -1.522929
2008-05-05 09:44:00 51°13.666 2°55.955 19.7912 0.099116 0.469349 -1.522929
2008-05-05 09:44:05 51°13.666 2°55.955 19.7916 0.099116 0.469363 -1.522929
2008-05-05 09:44:10 51°13.666 2°55.955 19.7921 0.099013 0.468865 -1.522929
2008-05-05 09:44:15 51°13.666 2°55.955 19.7927 0.099013 0.468878 -1.522929
2008-05-05 09:44:20 51°13.666 2°55.955 19.7943 0.099013 0.468892 -1.522929
2008-05-05 09:44:25 51°13.666 2°55.955 19.7942 0.099013 0.468899 -1.522929
2008-05-05 09:44:30 51°13.666 2°55.954 19.7948 0.099013 0.468899 -1.522929
2008-05-05 09:44:35 51°13.666 2°55.954 19.7952 0.099013 0.468906 -1.522929
2008-05-05 09:44:40 51°13.666 2°55.954 19.796 0.099013 0.468912 -1.522929
2008-05-05 09:44:45 51°13.666 2°55.954 19.797 0.099013 0.468926 -1.522929
2008-05-05 09:44:50 51°13.666 2°55.954 19.7958 0.099013 0.468933 -1.522929
2008-05-05 09:44:55 51°13.666 2°55.954 19.795 0.099013 0.468946 -1.488105
2008-05-05 09:45:00 51°13.666 2°55.954 19.7955 0.099013 0.468946 -1.488105
2008-05-05 09:45:05 51°13.666 2°55.954 19.7974 0.099013 0.468953 -1.522929
2008-05-05 09:45:10 51°13.666 2°55.954 19.7974 0.099013 0.46896 -1.522929
2008-05-05 09:45:15 51°13.666 2°55.954 19.797 0.099013 0.468973 -1.522929
2008-05-05 09:45:19 51°13.666 2°55.954 19.7959 0.099013 0.468987 -1.522929
2008-05-05 09:45:25 51°13.666 2°55.954 19.7975 0.099013 0.468994 -1.522929
2008-05-05 09:45:30 51°13.666 2°55.954 19.7979 0.099013 0.468994 -1.522929
2008-05-05 09:45:35 51°13.666 2°55.954 19.7966 0.099013 0.469007 -1.522929
2008-05-05 09:45:40 51°13.667 2°55.954 19.7973 0.099013 0.469014 -1.522929
2008-05-05 09:45:45 51°13.667 2°55.954 19.7986 0.099013 0.469027 -1.522929
2008-05-05 09:45:50 51°13.666 2°55.954 19.8002 0.099013 0.469034 -1.522929
2008-05-05 09:45:55 51°13.666 2°55.954 19.8009 0.099013 0.469041 -1.522929
2008-05-05 09:46:00 51°13.666 2°55.954 19.8023 0.099013 0.469041 -1.522929
2008-05-05 09:46:05 51°13.666 2°55.954 19.8043 0.099013 0.469055 -1.522929
2008-05-05 09:46:10 51°13.666 2°55.954 19.8057 0.099013 0.469061 -1.522929
2008-05-05 09:46:15 51°13.666 2°55.954 19.8066 0.099013 0.469068 -1.522929
2008-05-05 09:46:20 51°13.666 2°55.954 19.8079 0.099013 0.469082 -1.522929
2008-05-05 09:46:25 51°13.667 2°55.954 19.8089 0.099013 0.469088 -1.522929
2008-05-05 09:46:30 51°13.667 2°55.954 19.809 0.099013 0.469088 -1.522929
2008-05-05 09:46:35 51°13.666 2°55.954 19.8109 0.099013 0.469095 -1.522929
2008-05-05 09:46:40 51°13.666 2°55.954 19.8084 0.099013 0.469109 -1.522929
2008-05-05 09:46:45 51°13.667 2°55.954 19.8065 0.099013 0.469116 -1.522929
2008-05-05 09:46:50 51°13.666 2°55.954 19.8067 0.099013 0.469122 -1.522929
2008-05-05 09:46:55 51°13.666 2°55.954 19.8072 0.099013 0.469136 -1.522929
2008-05-05 09:47:00 51°13.666 2°55.954 19.8092 0.099013 0.469136 -1.522929
2008-05-05 09:47:05 51°13.666 2°55.954 19.8098 0.099013 0.469143 -1.522929
2008-05-05 09:47:10 51°13.666 2°55.954 19.8104 0.099013 0.469156 -1.522929
2008-05-05 09:47:15 51°13.666 2°55.954 19.8113 0.099013 0.469163 -1.522929
2008-05-05 09:47:20 51°13.666 2°55.954 19.8121 0.099013 0.469177 -1.522929
2008-05-05 09:47:25 51°13.666 2°55.954 19.8121 0.099013 0.469183 -1.522929
2008-05-05 09:47:30 51°13.666 2°55.954 19.814 0.099013 0.469183 -1.522929
2008-05-05 09:47:35 51°13.666 2°55.954 19.815 0.099013 0.46919 -1.522929
2008-05-05 09:47:40 51°13.666 2°55.954 19.8149 0.099013 0.469204 -1.522929
2008-05-05 09:47:45 51°13.666 2°55.954 19.8172 0.099013 0.469211 -1.522929
2008-05-05 09:47:50 51°13.666 2°55.954 19.8188 0.099013 0.469217 -1.522929
2008-05-05 09:47:55 51°13.666 2°55.954 19.8209 0.099013 0.469231 -1.522929
2008-05-05 09:48:00 51°13.666 2°55.954 19.8224 0.099013 0.469231 -1.522929
2008-05-05 09:48:04 51°13.666 2°55.954 19.8235 0.099013 0.469244 -1.522929
2008-05-05 09:48:10 51°13.666 2°55.954 19.8234 0.099013 0.469251 -1.522929
2008-05-05 09:48:15 51°13.666 2°55.954 19.8239 0.099013 0.469258 -1.522929
2008-05-05 09:48:20 51°13.666 2°55.954 19.825 0.099013 0.469265 -1.522929
2008-05-05 09:48:25 51°13.666 2°55.954 19.8254 0.099013 0.469272 -1.522929
2008-05-05 09:48:30 51°13.666 2°55.954 19.8259 0.099013 0.469272 -1.522929
2008-05-05 09:48:35 51°13.666 2°55.954 19.8272 0.099013 0.469292 -1.522929
2008-05-05 09:48:40 51°13.666 2°55.954 19.8282 0.099013 0.469292 -1.522929
2008-05-05 09:48:45 51°13.666 2°55.954 19.8289 0.099013 0.469306 -1.522929
2008-05-05 09:48:50 51°13.666 2°55.954 19.8299 0.099013 0.469312 -1.522929
2008-05-05 09:48:55 51°13.666 2°55.953 19.8303 0.099013 0.469319 -1.522929
2008-05-05 09:49:00 51°13.666 2°55.953 19.8296 0.099013 0.469319 -1.522929
2008-05-05 09:49:05 51°13.666 2°55.953 19.8301 0.099013 0.469333 -1.522929
2008-05-05 09:49:10 51°13.666 2°55.953 19.8295 0.099013 0.46934 -1.522929
2008-05-05 09:49:15 51°13.666 2°55.953 19.8308 0.099013 0.469353 -1.522929
2008-05-05 09:49:20 51°13.666 2°55.953 19.8308 0.09891 0.468855 -1.522929
2008-05-05 09:49:25 51°13.666 2°55.953 19.8314 0.09891 0.468861 -1.522929
2008-05-05 09:49:30 51°13.666 2°55.953 19.8322 0.09891 0.468861 -1.522929
2008-05-05 09:49:35 51°13.666 2°55.953 19.8333 0.09891 0.468875 -1.522929
2008-05-05 09:49:40 51°13.666 2°55.953 19.8338 0.09891 0.468882 -1.522929
2008-05-05 09:49:45 51°13.666 2°55.953 19.8344 0.09891 0.468895 -1.522929
2008-05-05 09:49:50 51°13.666 2°55.953 19.8348 0.09891 0.468902 -1.522929
2008-05-05 09:49:55 51°13.666 2°55.953 19.8358 0.09891 0.468909 -1.522929
2008-05-05 09:50:00 51°13.666 2°55.953 19.8368 0.09891 0.468909 -1.522929
2008-05-05 09:50:05 51°13.666 2°55.953 19.8374 0.09891 0.468922 -1.522929
2008-05-05 09:50:10 51°13.666 2°55.953 19.8352 0.09891 0.468929 -1.488105
2008-05-05 09:50:15 51°13.666 2°55.953 19.8368 0.09891 0.468936 -1.522929
2008-05-05 09:50:20 51°13.666 2°55.954 19.8382 0.09891 0.46895 -1.522929
2008-05-05 09:50:25 51°13.666 2°55.954 19.838 0.09891 0.468956 -1.522929
2008-05-05 09:50:30 51°13.666 2°55.954 19.8383 0.09891 0.468956 -1.522929
2008-05-05 09:50:35 51°13.666 2°55.954 19.8385 0.09891 0.46897 -1.522929
2008-05-05 09:50:40 51°13.666 2°55.954 19.8383 0.09891 0.468977 -1.522929
2008-05-05 09:50:45 51°13.666 2°55.954 19.8394 0.09891 0.46899 -1.522929
2008-05-05 09:50:50 51°13.666 2°55.954 19.8402 0.09891 0.468997 -1.488105
2008-05-05 09:50:55 51°13.666 2°55.954 19.8398 0.09891 0.469011 -1.522929
2008-05-05 09:51:00 51°13.666 2°55.953 19.84 0.09891 0.469011 -1.522929
2008-05-05 09:51:05 51°13.666 2°55.953 19.8421 0.09891 0.469017 -1.522929
2008-05-05 09:51:10 51°13.666 2°55.953 19.843 0.09891 0.469024 -1.522929
2008-05-05 09:51:15 51°13.666 2°55.954 19.8443 0.09891 0.469031 -1.522929
2008-05-05 09:51:20 51°13.666 2°55.954 19.845 0.09891 0.469045 -1.522929
2008-05-05 09:51:25 51°13.666 2°55.953 19.8458 0.09891 0.469051 -1.522929
2008-05-05 09:51:30 51°13.666 2°55.954 19.8467 0.09891 0.469051 -1.522929
2008-05-05 09:51:35 51°13.666 2°55.954 19.8456 0.09891 0.469058 -1.522929
2008-05-05 09:51:40 51°13.666 2°55.954 19.8474 0.09891 0.469072 -1.522929
2008-05-05 09:51:45 51°13.666 2°55.954 19.8496 0.09891 0.469072 -1.522929
2008-05-05 09:51:50 51°13.666 2°55.954 19.8505 0.09891 0.469092 -1.522929
2008-05-05 09:51:55 51°13.666 2°55.954 19.851 0.09891 0.469092 -1.522929
2008-05-05 09:52:00 51°13.665 2°55.954 19.8529 0.09891 0.469092 -1.522929
2008-05-05 09:52:05 51°13.665 2°55.954 19.8542 0.09891 0.469106 -1.522929
2008-05-05 09:52:10 51°13.665 2°55.954 19.8555 0.09891 0.469113 -1.522929
2008-05-05 09:52:15 51°13.665 2°55.954 19.8568 0.09891 0.469126 -1.522929
2008-05-05 09:52:20 51°13.665 2°55.954 19.8577 0.09891 0.469133 -1.522929
2008-05-05 09:52:25 51°13.665 2°55.954 19.8571 0.09891 0.469146 -1.522929
2008-05-05 09:52:30 51°13.665 2°55.954 19.8589 0.09891 0.469146 -1.522929
2008-05-05 09:52:35 51°13.665 2°55.954 19.8596 0.09891 0.469153 -1.522929
2008-05-05 09:52:40 51°13.665 2°55.954 19.861 0.09891 0.46916 -1.522929
2008-05-05 09:52:45 51°13.665 2°55.954 19.8623 0.09891 0.469174 -1.522929
2008-05-05 09:52:50 51°13.665 2°55.954 19.8626 0.09891 0.46918 -1.522929
2008-05-05 09:52:55 51°13.665 2°55.954 19.8631 0.09891 0.469187 -1.522929
2008-05-05 09:53:00 51°13.665 2°55.954 19.8635 0.09891 0.469187 -1.522929
2008-05-05 09:53:05 51°13.665 2°55.954 19.8638 0.09891 0.469201 -1.522929
2008-05-05 09:53:10 51°13.665 2°55.954 19.861 0.09891 0.469208 -1.522929
2008-05-05 09:53:15 51°13.665 2°55.954 19.8616 0.09891 0.469214 -1.522929
2008-05-05 09:53:20 51°13.665 2°55.954 19.8629 0.09891 0.469221 -1.522929
2008-05-05 09:53:25 51°13.665 2°55.954 19.8641 0.09891 0.469235 -1.522929
2008-05-05 09:53:30 51°13.665 2°55.954 19.8647 0.09891 0.469235 -1.522929
2008-05-05 09:53:35 51°13.665 2°55.954 19.8641 0.09891 0.469242 -1.522929
2008-05-05 09:53:40 51°13.665 2°55.954 19.864 0.09891 0.469255 -1.522929
2008-05-05 09:53:45 51°13.665 2°55.954 19.8655 0.09891 0.469262 -1.522929
2008-05-05 09:53:50 51°13.665 2°55.954 19.8669 0.09891 0.469269 -1.522929
2008-05-05 09:53:55 51°13.665 2°55.954 19.8681 0.09891 0.469282 -1.522929
2008-05-05 09:54:00 51°13.665 2°55.954 19.8691 0.09891 0.469282 -1.522929
2008-05-05 09:54:05 51°13.665 2°55.954 19.8694 0.09891 0.469289 -1.522929
2008-05-05 09:54:10 51°13.665 2°55.954 19.8684 0.09891 0.469296 -1.522929
2008-05-05 09:54:15 51°13.665 2°55.954 19.868 0.09891 0.46931 -1.522929
2008-05-05 09:54:20 51°13.665 2°55.954 19.8671 0.09891 0.469316 -1.522929
2008-05-05 09:54:25 51°13.665 2°55.954 19.8691 0.09891 0.469323 -1.522929
2008-05-05 09:54:30 51°13.665 2°55.954 19.8704 0.09891 0.469323 -1.522929
2008-05-05 09:54:35 51°13.665 2°55.954 19.8723 0.09891 0.469337 -1.522929
2008-05-05 09:54:40 51°13.665 2°55.954 19.8734 0.09891 0.469344 -1.522929
2008-05-05 09:54:44 51°13.665 2°55.954 19.8741 0.098807 0.468845 -1.522929
2008-05-05 09:54:50 51°13.665 2°55.954 19.8732 0.098807 0.468858 -1.522929
2008-05-05 09:54:55 51°13.665 2°55.954 19.874 0.098807 0.468865 -1.522929
2008-05-05 09:55:00 51°13.665 2°55.954 19.8753 0.098807 0.468865 -1.522929
2008-05-05 09:55:05 51°13.665 2°55.954 19.8752 0.098807 0.468872 -1.522929
2008-05-05 09:55:10 51°13.665 2°55.954 19.8751 0.098807 0.468885 -1.522929
2008-05-05 09:55:15 51°13.665 2°55.954 19.8772 0.098807 0.468892 -1.522929
2008-05-05 09:55:20 51°13.665 2°55.954 19.8795 0.098807 0.468899 -1.522929
2008-05-05 09:55:25 51°13.665 2°55.954 19.8802 0.098807 0.468912 -1.522929
2008-05-05 09:55:30 51°13.665 2°55.954 19.8824 0.098807 0.468912 -1.522929
2008-05-05 09:55:35 51°13.665 2°55.954 19.8836 0.098807 0.468919 -1.522929
2008-05-05 09:55:40 51°13.665 2°55.954 19.8837 0.098807 0.468926 -1.522929
2008-05-05 09:55:45 51°13.665 2°55.954 19.8852 0.098807 0.46894 -1.522929
2008-05-05 09:55:50 51°13.665 2°55.954 19.8858 0.098807 0.468946 -1.522929
2008-05-05 09:55:55 51°13.665 2°55.954 19.8861 0.098807 0.468953 -1.522929
2008-05-05 09:56:00 51°13.665 2°55.954 19.8869 0.098807 0.468953 -1.522929
2008-05-05 09:56:05 51°13.665 2°55.954 19.8874 0.098807 0.468967 -1.522929
2008-05-05 09:56:10 51°13.665 2°55.954 19.8877 0.098807 0.468974 -1.522929
2008-05-05 09:56:15 51°13.665 2°55.954 19.8877 0.098807 0.468987 -1.557753
2008-05-05 09:56:20 51°13.665 2°55.954 19.8877 0.098807 0.468994 -1.522929
2008-05-05 09:56:25 51°13.665 2°55.954 19.8884 0.098807 0.469001 -1.522929
2008-05-05 09:56:30 51°13.665 2°55.954 19.8882 0.098807 0.469001 -1.522929
2008-05-05 09:56:35 51°13.665 2°55.954 19.8893 0.098807 0.469008 -1.522929
2008-05-05 09:56:40 51°13.665 2°55.954 19.8893 0.098807 0.469021 -1.522929
2008-05-05 09:56:45 51°13.665 2°55.954 19.8883 0.098807 0.469028 -1.522929
2008-05-05 09:56:50 51°13.665 2°55.955 19.8884 0.098807 0.469035 -1.522929
2008-05-05 09:56:55 51°13.665 2°55.955 19.8895 0.098807 0.469048 -1.522929
2008-05-05 09:57:00 51°13.665 2°55.955 19.8903 0.098807 0.469048 -1.522929
2008-05-05 09:57:04 51°13.665 2°55.955 19.8912 0.098807 0.469055 -1.522929
2008-05-05 09:57:10 51°13.665 2°55.955 19.8928 0.098807 0.469069 -1.522929
2008-05-05 09:57:15 51°13.665 2°55.955 19.8927 0.098807 0.469076 -1.557753
2008-05-05 09:57:20 51°13.665 2°55.955 19.8932 0.098807 0.469082 -1.522929
2008-05-05 09:57:25 51°13.665 2°55.955 19.8932 0.098807 0.469096 -1.522929
2008-05-05 09:57:30 51°13.665 2°55.955 19.8938 0.098807 0.469096 -1.522929
2008-05-05 09:57:35 51°13.665 2°55.955 19.8947 0.098807 0.469103 -1.522929
2008-05-05 09:57:40 51°13.665 2°55.954 19.896 0.098807 0.46911 -1.522929
2008-05-05 09:57:45 51°13.665 2°55.955 19.8964 0.098807 0.469116 -1.522929
2008-05-05 09:57:50 51°13.665 2°55.954 19.8963 0.098807 0.46913 -1.557753
2008-05-05 09:57:55 51°13.665 2°55.954 19.8961 0.098807 0.469137 -1.522929
2008-05-05 09:58:00 51°13.665 2°55.954 19.8947 0.098807 0.469137 -1.522929
2008-05-05 09:58:05 51°13.665 2°55.954 19.8939 0.098807 0.469144 -1.522929
2008-05-05 09:58:10 51°13.665 2°55.954 19.8943 0.098807 0.46915 -1.522929
2008-05-05 09:58:15 51°13.665 2°55.954 19.8962 0.098807 0.469164 -1.557753
2008-05-05 09:58:20 51°13.665 2°55.954 19.8975 0.098807 0.469171 -1.522929
2008-05-05 09:58:25 51°13.665 2°55.954 19.8991 0.098807 0.469184 -1.522929
2008-05-05 09:58:30 51°13.665 2°55.954 19.8999 0.098807 0.469184 -1.522929
2008-05-05 09:58:35 51°13.665 2°55.954 19.9007 0.098807 0.469191 -1.557753
2008-05-05 09:58:40 51°13.665 2°55.954 19.9023 0.098807 0.469198 -1.522929
2008-05-05 09:58:45 51°13.665 2°55.954 19.9027 0.098807 0.469212 -1.522929
2008-05-05 09:58:50 51°13.665 2°55.954 19.9033 0.098807 0.469218 -1.522929
2008-05-05 09:58:55 51°13.665 2°55.954 19.9029 0.098807 0.469225 -1.522929
2008-05-05 09:59:00 51°13.665 2°55.954 19.9034 0.098807 0.469225 -1.522929
2008-05-05 09:59:04 51°13.665 2°55.954 19.9037 0.098807 0.469232 -1.522929
2008-05-05 09:59:10 51°13.665 2°55.954 19.9043 0.098807 0.469246 -1.557753
2008-05-05 09:59:15 51°13.665 2°55.954 19.9052 0.098807 0.469252 -1.522929
2008-05-05 09:59:20 51°13.665 2°55.954 19.9062 0.098807 0.469259 -1.522929
2008-05-05 09:59:25 51°13.665 2°55.954 19.907 0.098807 0.469273 -1.522929
2008-05-05 09:59:30 51°13.665 2°55.954 19.9072 0.098807 0.469273 -1.522929
2008-05-05 09:59:35 51°13.666 2°55.954 19.9059 0.098807 0.46928 -1.557753
2008-05-05 09:59:40 51°13.666 2°55.954 19.9065 0.098807 0.469293 -1.522929
2008-05-05 09:59:45 51°13.666 2°55.954 19.9074 0.098807 0.469293 -1.522929
2008-05-05 09:59:50 51°13.666 2°55.954 19.9085 0.098807 0.4693 -1.522929
2008-05-05 09:59:55 51°13.666 2°55.954 19.9092 0.098807 0.469314 -1.522929
2008-05-05 10:00:00 51°13.666 2°55.954 19.9096 0.098807 0.469314 -1.522929
2008-05-05 10:00:05 51°13.666 2°55.954 19.9106 0.098807 0.469321 -1.522929
2008-05-05 10:00:10 51°13.666 2°55.954 19.9109 0.098704 0.468828 -1.522929
2008-05-05 10:00:15 51°13.666 2°55.954 19.9115 0.098704 0.468835 -1.522929
2008-05-05 10:00:20 51°13.666 2°55.954 19.912 0.098704 0.468848 -1.522929
2008-05-05 10:00:25 51°13.665 2°55.954 19.9123 0.098704 0.468848 -1.522929
2008-05-05 10:00:30 51°13.665 2°55.954 19.9124 0.098704 0.468848 -1.522929
2008-05-05 10:00:35 51°13.665 2°55.954 19.912 0.098704 0.468862 -1.522929
2008-05-05 10:00:40 51°13.665 2°55.954 19.9123 0.098704 0.468869 -1.522929
2008-05-05 10:00:45 51°13.665 2°55.954 19.9129 0.098704 0.468882 -1.522929
2008-05-05 10:00:50 51°13.665 2°55.954 19.9142 0.098704 0.468882 -1.522929
2008-05-05 10:00:55 51°13.665 2°55.954 19.9149 0.098704 0.468896 -1.522929
2008-05-05 10:01:00 51°13.665 2°55.954 19.9139 0.098704 0.468896 -1.522929
2008-05-05 10:01:05 51°13.665 2°55.954 19.9139 0.098704 0.468903 -1.522929
2008-05-05 10:01:10 51°13.665 2°55.954 19.914 0.098704 0.468916 -1.557753
2008-05-05 10:01:15 51°13.665 2°55.954 19.9151 0.098704 0.468923 -1.522929
2008-05-05 10:01:20 51°13.665 2°55.954 19.9165 0.098704 0.46893 -1.522929
2008-05-05 10:01:25 51°13.665 2°55.954 19.918 0.098704 0.468937 -1.557753
2008-05-05 10:01:30 51°13.665 2°55.954 19.9179 0.098704 0.468937 -1.557753
2008-05-05 10:01:35 51°13.665 2°55.954 19.9165 0.098704 0.46895 -1.557753
2008-05-05 10:01:40 51°13.665 2°55.954 19.9169 0.098704 0.468957 -1.522929
2008-05-05 10:01:44 51°13.665 2°55.954 19.9182 0.098704 0.468971 -1.522929
2008-05-05 10:01:50 51°13.665 2°55.954 19.9203 0.098704 0.468978 -1.522929
2008-05-05 10:01:55 51°13.665 2°55.954 19.9207 0.098704 0.468984 -1.522929
2008-05-05 10:02:00 51°13.665 2°55.954 19.9229 0.098704 0.468984 -1.522929
2008-05-05 10:02:05 51°13.665 2°55.954 19.9244 0.098704 0.468998 -1.522929
2008-05-05 10:02:10 51°13.665 2°55.954 19.927 0.098704 0.468998 -1.522929
2008-05-05 10:02:15 51°13.665 2°55.954 19.9287 0.098704 0.469012 -1.522929
2008-05-05 10:02:20 51°13.665 2°55.954 19.9307 0.098704 0.469018 -1.522929
2008-05-05 10:02:25 51°13.665 2°55.954 19.933 0.098704 0.469025 -1.557753
2008-05-05 10:02:30 51°13.665 2°55.954 19.9344 0.098704 0.469025 -1.557753
2008-05-05 10:02:35 51°13.665 2°55.955 19.9351 0.098704 0.469032 -1.522929
2008-05-05 10:02:40 51°13.665 2°55.955 19.9348 0.098704 0.469046 -1.557753
2008-05-05 10:02:45 51°13.665 2°55.954 19.9349 0.098704 0.469059 -1.557753
2008-05-05 10:02:50 51°13.665 2°55.954 19.9366 0.098704 0.469066 -1.557753
2008-05-05 10:02:55 51°13.665 2°55.954 19.9387 0.098704 0.469073 -1.522929
2008-05-05 10:03:00 51°13.665 2°55.954 19.9395 0.098704 0.469073 -1.522929
2008-05-05 10:03:05 51°13.665 2°55.955 19.9403 0.098704 0.469086 -1.557753
2008-05-05 10:03:10 51°13.665 2°55.955 19.9407 0.098704 0.469093 -1.522929
2008-05-05 10:03:15 51°13.665 2°55.955 19.9407 0.098704 0.4691 -1.557753
2008-05-05 10:03:20 51°13.665 2°55.955 19.9412 0.098704 0.469107 -1.557753
2008-05-05 10:03:25 51°13.665 2°55.955 19.942 0.098704 0.469114 -1.557753
2008-05-05 10:03:30 51°13.665 2°55.955 19.9417 0.098704 0.469114 -1.557753
2008-05-05 10:03:35 51°13.665 2°55.955 19.9403 0.098704 0.469121 -1.557753
2008-05-05 10:03:40 51°13.665 2°55.955 19.9401 0.098704 0.469134 -1.557753
2008-05-05 10:03:44 51°13.665 2°55.955 19.9412 0.098704 0.469141 -1.557753
2008-05-05 10:03:50 51°13.665 2°55.955 19.9423 0.098704 0.469155 -1.557753
2008-05-05 10:03:55 51°13.665 2°55.955 19.9442 0.098704 0.469161 -1.557753
2008-05-05 10:04:00 51°13.665 2°55.955 19.9456 0.098704 0.469161 -1.557753
2008-05-05 10:04:04 51°13.665 2°55.955 19.9461 0.098704 0.469168 -1.557753
2008-05-05 10:04:10 51°13.665 2°55.955 19.9468 0.098704 0.469175 -1.557753
2008-05-05 10:04:15 51°13.665 2°55.955 19.947 0.098704 0.469189 -1.557753
2008-05-05 10:04:20 51°13.665 2°55.955 19.948 0.098704 0.469195 -1.522929
2008-05-05 10:04:25 51°13.665 2°55.955 19.9493 0.098704 0.469202 -1.522929
2008-05-05 10:04:30 51°13.665 2°55.955 19.9494 0.098704 0.469202 -1.522929
2008-05-05 10:04:35 51°13.665 2°55.955 19.9504 0.098704 0.469216 -1.557753
2008-05-05 10:04:40 51°13.665 2°55.955 19.9508 0.098704 0.469223 -1.522929
2008-05-05 10:04:45 51°13.665 2°55.955 19.9508 0.098704 0.46923 -1.557753
2008-05-05 10:04:50 51°13.665 2°55.955 19.9505 0.098704 0.469236 -1.557753
2008-05-05 10:04:55 51°13.665 2°55.954 19.9503 0.098704 0.469243 -1.557753
2008-05-05 10:05:00 51°13.665 2°55.954 19.9515 0.098704 0.469243 -1.557753
2008-05-05 10:05:05 51°13.665 2°55.954 19.952 0.098704 0.46925 -1.557753
2008-05-05 10:05:10 51°13.665 2°55.954 19.9517 0.098704 0.469264 -1.557753
2008-05-05 10:05:15 51°13.665 2°55.954 19.951 0.098704 0.46927 -1.557753
2008-05-05 10:05:20 51°13.665 2°55.954 19.9513 0.098704 0.469277 -1.557753
2008-05-05 10:05:25 51°13.665 2°55.954 19.9527 0.098704 0.469291 -1.557753
2008-05-05 10:05:30 51°13.665 2°55.954 19.9542 0.098704 0.469291 -1.557753
2008-05-05 10:05:35 51°13.665 2°55.954 19.9549 0.098704 0.469298 -1.557753
2008-05-05 10:05:40 51°13.665 2°55.954 19.9544 0.098704 0.469305 -1.557753
2008-05-05 10:05:45 51°13.665 2°55.954 19.9554 0.098704 0.469318 -1.557753
2008-05-05 10:05:50 51°13.665 2°55.954 19.956 0.098704 0.469318 -1.522929
2008-05-05 10:05:55 51°13.665 2°55.954 19.9563 0.098704 0.469332 -1.557753
2008-05-05 10:06:00 51°13.665 2°55.954 19.9573 0.098704 0.469332 -1.557753
2008-05-05 10:06:05 51°13.665 2°55.954 19.957 0.098704 0.469339 -1.557753
2008-05-05 10:06:10 51°13.665 2°55.954 19.9564 0.098704 0.469352 -1.557753
2008-05-05 10:06:15 51°13.665 2°55.954 19.9567 0.098601 0.468845 -1.557753
2008-05-05 10:06:20 51°13.665 2°55.954 19.9565 0.098601 0.468859 -1.557753
2008-05-05 10:06:25 51°13.665 2°55.954 19.9575 0.098601 0.468866 -1.557753
2008-05-05 10:06:30 51°13.665 2°55.954 19.958 0.098601 0.468866 -1.557753
2008-05-05 10:06:35 51°13.665 2°55.954 19.9581 0.098601 0.468879 -1.557753
2008-05-05 10:06:40 51°13.665 2°55.954 19.9596 0.098601 0.468886 -1.522929
2008-05-05 10:06:45 51°13.665 2°55.954 19.9595 0.098601 0.468893 -1.557753
2008-05-05 10:06:50 51°13.665 2°55.954 19.9607 0.098601 0.4689 -1.557753
2008-05-05 10:06:55 51°13.665 2°55.954 19.9619 0.098601 0.468914 -1.557753
2008-05-05 10:07:00 51°13.665 2°55.954 19.9625 0.098601 0.468914 -1.557753
2008-05-05 10:07:05 51°13.665 2°55.954 19.963 0.098601 0.46892 -1.557753
2008-05-05 10:07:10 51°13.665 2°55.954 19.9638 0.098601 0.468927 -1.557753
2008-05-05 10:07:15 51°13.665 2°55.954 19.9646 0.098601 0.468941 -1.557753
2008-05-05 10:07:20 51°13.665 2°55.954 19.9662 0.098601 0.468948 -1.557753
2008-05-05 10:07:25 51°13.665 2°55.954 19.9666 0.098601 0.468954 -1.557753
2008-05-05 10:07:30 51°13.665 2°55.954 19.967 0.098601 0.468954 -1.557753
2008-05-05 10:07:35 51°13.665 2°55.955 19.9677 0.098601 0.468961 -1.557753
2008-05-05 10:07:40 51°13.665 2°55.954 19.9686 0.098601 0.468975 -1.557753
2008-05-05 10:07:45 51°13.665 2°55.954 19.9691 0.098601 0.468975 -1.557753
2008-05-05 10:07:50 51°13.665 2°55.954 19.9693 0.098601 0.468982 -1.557753
2008-05-05 10:07:55 51°13.665 2°55.954 19.9693 0.098601 0.468995 -1.557753
2008-05-05 10:08:00 51°13.665 2°55.954 19.9702 0.098601 0.468995 -1.557753
2008-05-05 10:08:05 51°13.665 2°55.954 19.9716 0.098601 0.469002 -1.557753
2008-05-05 10:08:10 51°13.665 2°55.955 19.973 0.098601 0.469009 -1.557753
2008-05-05 10:08:15 51°13.665 2°55.955 19.974 0.098601 0.469016 -1.557753
2008-05-05 10:08:20 51°13.665 2°55.955 19.9746 0.098601 0.469023 -1.557753
2008-05-05 10:08:25 51°13.665 2°55.955 19.9751 0.098601 0.469036 -1.557753
2008-05-05 10:08:30 51°13.665 2°55.954 19.9755 0.098601 0.469036 -1.557753
2008-05-05 10:08:35 51°13.665 2°55.954 19.9755 0.098601 0.469043 -1.557753
2008-05-05 10:08:40 51°13.665 2°55.954 19.9766 0.098601 0.469057 -1.557753
2008-05-05 10:08:44 51°13.665 2°55.954 19.9768 0.098601 0.469064 -1.557753
2008-05-05 10:08:50 51°13.665 2°55.954 19.9771 0.098601 0.46907 -1.522929
2008-05-05 10:08:55 51°13.665 2°55.954 19.9779 0.098601 0.469077 -1.557753
2008-05-05 10:09:00 51°13.665 2°55.954 19.9783 0.098601 0.469077 -1.557753
2008-05-05 10:09:05 51°13.665 2°55.954 19.9765 0.098601 0.469084 -1.557753
2008-05-05 10:09:10 51°13.665 2°55.954 19.9774 0.098601 0.469098 -1.557753
2008-05-05 10:09:15 51°13.665 2°55.954 19.9783 0.098601 0.469098 -1.557753
2008-05-05 10:09:20 51°13.665 2°55.953 19.9796 0.098601 0.469111 -1.557753
2008-05-05 10:09:25 51°13.665 2°55.953 19.9805 0.098601 0.469125 -1.557753
2008-05-05 10:09:30 51°13.665 2°55.953 19.9813 0.098601 0.469125 -1.557753
2008-05-05 10:09:35 51°13.665 2°55.953 19.9825 0.098601 0.469125 -1.557753
2008-05-05 10:09:40 51°13.665 2°55.953 19.9835 0.098601 0.469139 -1.557753
2008-05-05 10:09:45 51°13.665 2°55.953 19.9844 0.098601 0.469145 -1.557753
2008-05-05 10:09:50 51°13.665 2°55.953 19.9844 0.098601 0.469152 -1.557753
2008-05-05 10:09:55 51°13.665 2°55.953 19.9849 0.098601 0.469166 -1.557753
2008-05-05 10:10:00 51°13.665 2°55.953 19.9852 0.098601 0.469166 -1.557753
2008-05-05 10:10:05 51°13.665 2°55.953 19.9861 0.098601 0.469173 -1.557753
2008-05-05 10:10:10 51°13.665 2°55.953 19.9871 0.098601 0.469179 -1.557753
2008-05-05 10:10:15 51°13.665 2°55.953 19.9877 0.098601 0.469186 -1.557753
2008-05-05 10:10:20 51°13.665 2°55.954 19.9882 0.098601 0.469193 -1.557753
2008-05-05 10:10:25 51°13.665 2°55.954 19.989 0.098601 0.4692 -1.557753
2008-05-05 10:10:30 51°13.665 2°55.954 19.9878 0.098601 0.4692 -1.557753
2008-05-05 10:10:35 51°13.665 2°55.954 19.9879 0.098601 0.469214 -1.557753
2008-05-05 10:10:40 51°13.665 2°55.954 19.9891 0.098601 0.46922 -1.557753
2008-05-05 10:10:45 51°13.665 2°55.954 19.9896 0.098601 0.469227 -1.557753
2008-05-05 10:10:50 51°13.665 2°55.954 19.9891 0.098601 0.469234 -1.557753
2008-05-05 10:10:55 51°13.665 2°55.954 19.9902 0.098601 0.469248 -1.557753
2008-05-05 10:11:00 51°13.665 2°55.954 19.9913 0.098601 0.469248 -1.557753
2008-05-05 10:11:05 51°13.665 2°55.954 19.9921 0.098601 0.469255 -1.557753
2008-05-05 10:11:10 51°13.665 2°55.954 19.9939 0.098601 0.469261 -1.557753
2008-05-05 10:11:15 51°13.665 2°55.954 19.9943 0.098601 0.469268 -1.557753
2008-05-05 10:11:20 51°13.665 2°55.954 19.9952 0.098601 0.469275 -1.557753
2008-05-05 10:11:25 51°13.665 2°55.954 19.9959 0.098601 0.469289 -1.557753
2008-05-05 10:11:30 51°13.665 2°55.954 19.9964 0.098601 0.469289 -1.557753
2008-05-05 10:11:35 51°13.665 2°55.954 19.9964 0.098601 0.469296 -1.557753
2008-05-05 10:11:40 51°13.665 2°55.954 19.9961 0.098601 0.469302 -1.557753
2008-05-05 10:11:45 51°13.665 2°55.954 19.9972 0.098601 0.469309 -1.557753
2008-05-05 10:11:50 51°13.665 2°55.954 19.9976 0.098601 0.469323 -1.557753
2008-05-05 10:11:55 51°13.665 2°55.954 19.9993 0.098498 0.468815 -1.557753
2008-05-05 10:12:00 51°13.665 2°55.954 20.0002 0.098498 0.468815 -1.557753
2008-05-05 10:12:05 51°13.665 2°55.954 20.0005 0.098498 0.468829 -1.557753
2008-05-05 10:12:10 51°13.665 2°55.954 20.0007 0.098498 0.468836 -1.557753
2008-05-05 10:12:15 51°13.665 2°55.954 20.0016 0.098498 0.468843 -1.557753
2008-05-05 10:12:19 51°13.665 2°55.954 20.0012 0.098498 0.46885 -1.557753
2008-05-05 10:12:25 51°13.665 2°55.954 20.0016 0.098498 0.468856 -1.557753
2008-05-05 10:12:30 51°13.665 2°55.954 20.0021 0.098498 0.468856 -1.557753
2008-05-05 10:12:35 51°13.665 2°55.954 20.0039 0.098498 0.46887 -1.557753
2008-05-05 10:12:40 51°13.665 2°55.954 20.0048 0.098498 0.468877 -1.557753
2008-05-05 10:12:45 51°13.665 2°55.954 20.0062 0.098498 0.468884 -1.557753
2008-05-05 10:12:50 51°13.665 2°55.954 20.0047 0.098498 0.468891 -1.557753
2008-05-05 10:12:55 51°13.665 2°55.954 20.0053 0.098498 0.468904 -1.557753
2008-05-05 10:13:00 51°13.665 2°55.954 20.0056 0.098498 0.468904 -1.557753
2008-05-05 10:13:05 51°13.665 2°55.954 20.0052 0.098498 0.468911 -1.557753
2008-05-05 10:13:10 51°13.665 2°55.954 20.0063 0.098498 0.468918 -1.557753
2008-05-05 10:13:15 51°13.665 2°55.954 20.0075 0.098498 0.468925 -1.557753
2008-05-05 10:13:20 51°13.665 2°55.954 20.0083 0.098498 0.468931 -1.557753
2008-05-05 10:13:25 51°13.665 2°55.954 20.0094 0.098498 0.468945 -1.557753
2008-05-05 10:13:30 51°13.665 2°55.954 20.0093 0.098498 0.468945 -1.557753
2008-05-05 10:13:35 51°13.665 2°55.954 20.0106 0.098498 0.468945 -1.557753
2008-05-05 10:13:40 51°13.665 2°55.954 20.0121 0.098498 0.468959 -1.557753
2008-05-05 10:13:45 51°13.665 2°55.954 20.0129 0.098498 0.468966 -1.557753
2008-05-05 10:13:50 51°13.665 2°55.954 20.0137 0.098498 0.468972 -1.557753
2008-05-05 10:13:55 51°13.665 2°55.954 20.0143 0.098498 0.468986 -1.557753
2008-05-05 10:14:00 51°13.665 2°55.954 20.0134 0.098498 0.468986 -1.557753
2008-05-05 10:14:05 51°13.665 2°55.954 20.0113 0.098498 0.468993 -1.592577
2008-05-05 10:14:10 51°13.665 2°55.954 20.0107 0.098498 0.469 -1.557753
2008-05-05 10:14:15 51°13.665 2°55.954 20.0126 0.098498 0.469007 -1.557753
2008-05-05 10:14:20 51°13.665 2°55.954 20.0145 0.098498 0.469013 -1.557753
2008-05-05 10:14:25 51°13.665 2°55.954 20.0153 0.098498 0.46902 -1.557753
2008-05-05 10:14:30 51°13.665 2°55.953 20.0164 0.098498 0.46902 -1.557753
2008-05-05 10:14:35 51°13.665 2°55.953 20.0143 0.098498 0.469027 -1.592577
2008-05-05 10:14:40 51°13.665 2°55.953 20.0152 0.098498 0.469041 -1.557753
2008-05-05 10:14:45 51°13.665 2°55.953 20.0169 0.098498 0.469048 -1.557753
2008-05-05 10:14:50 51°13.665 2°55.953 20.0192 0.098498 0.469054 -1.557753
2008-05-05 10:14:55 51°13.665 2°55.953 20.0208 0.098498 0.469061 -1.557753
2008-05-05 10:15:00 51°13.665 2°55.954 20.0201 0.098498 0.469061 -1.557753
2008-05-05 10:15:05 51°13.665 2°55.953 20.0206 0.098498 0.469075 -1.592577
2008-05-05 10:15:10 51°13.665 2°55.954 20.0223 0.098498 0.469082 -1.557753
2008-05-05 10:15:15 51°13.665 2°55.954 20.0233 0.098498 0.469089 -1.592577
2008-05-05 10:15:20 51°13.665 2°55.954 20.0246 0.098498 0.469095 -1.557753
2008-05-05 10:15:25 51°13.665 2°55.954 20.0253 0.098498 0.469102 -1.557753
2008-05-05 10:15:30 51°13.665 2°55.954 20.0251 0.098498 0.469102 -1.557753
2008-05-05 10:15:35 51°13.665 2°55.954 20.025 0.098498 0.469109 -1.592577
2008-05-05 10:15:40 51°13.665 2°55.954 20.0257 0.098498 0.469116 -1.592577
2008-05-05 10:15:45 51°13.665 2°55.954 20.0271 0.098498 0.46913 -1.557753
2008-05-05 10:15:50 51°13.665 2°55.954 20.0276 0.098498 0.469136 -1.557753
2008-05-05 10:15:55 51°13.665 2°55.954 20.0278 0.098498 0.469143 -1.557753
2008-05-05 10:16:00 51°13.665 2°55.954 20.0286 0.098498 0.469143 -1.557753
2008-05-05 10:16:05 51°13.665 2°55.954 20.0288 0.098498 0.46915 -1.557753
2008-05-05 10:16:10 51°13.665 2°55.954 20.0297 0.098498 0.469157 -1.557753
2008-05-05 10:16:15 51°13.665 2°55.954 20.0314 0.098498 0.46917 -1.557753
2008-05-05 10:16:20 51°13.665 2°55.954 20.0319 0.098498 0.469177 -1.557753
2008-05-05 10:16:25 51°13.665 2°55.954 20.0318 0.098498 0.469184 -1.557753
2008-05-05 10:16:30 51°13.665 2°55.954 20.0323 0.098498 0.469184 -1.557753
2008-05-05 10:16:35 51°13.665 2°55.954 20.0327 0.098498 0.469191 -1.557753
2008-05-05 10:16:40 51°13.665 2°55.954 20.0339 0.098498 0.469198 -1.592577
2008-05-05 10:16:45 51°13.665 2°55.954 20.034 0.098498 0.469211 -1.557753
2008-05-05 10:16:50 51°13.665 2°55.954 20.0346 0.098498 0.469218 -1.557753
2008-05-05 10:16:55 51°13.665 2°55.954 20.0354 0.098498 0.469232 -1.557753
2008-05-05 10:17:00 51°13.665 2°55.954 20.0352 0.098498 0.469232 -1.557753
2008-05-05 10:17:05 51°13.665 2°55.955 20.0355 0.098498 0.469232 -1.592577
2008-05-05 10:17:10 51°13.665 2°55.955 20.0363 0.098498 0.469239 -1.592577
2008-05-05 10:17:15 51°13.665 2°55.955 20.0367 0.098498 0.469246 -1.592577
2008-05-05 10:17:20 51°13.665 2°55.955 20.0374 0.098498 0.469259 -1.592577
2008-05-05 10:17:25 51°13.665 2°55.955 20.0389 0.098498 0.469266 -1.557753
2008-05-05 10:17:30 51°13.665 2°55.955 20.0398 0.098498 0.469266 -1.557753
2008-05-05 10:17:35 51°13.665 2°55.955 20.04 0.098498 0.469273 -1.592577
2008-05-05 10:17:40 51°13.665 2°55.955 20.0385 0.098498 0.46928 -1.557753
2008-05-05 10:17:45 51°13.665 2°55.955 20.039 0.098498 0.469287 -1.592577
2008-05-05 10:17:50 51°13.665 2°55.955 20.0393 0.098498 0.4693 -1.557753
2008-05-05 10:17:55 51°13.665 2°55.955 20.04 0.098498 0.469307 -1.592577
2008-05-05 10:18:00 51°13.665 2°55.955 20.0412 0.098498 0.469307 -1.592577
2008-05-05 10:18:05 51°13.665 2°55.956 20.0414 0.098498 0.469314 -1.592577
2008-05-05 10:18:10 51°13.665 2°55.956 20.0426 0.098498 0.469321 -1.557753
2008-05-05 10:18:15 51°13.665 2°55.956 20.0408 0.098395 0.468827 -1.557753
2008-05-05 10:18:20 51°13.665 2°55.956 20.0392 0.098395 0.468827 -1.592577
2008-05-05 10:18:25 51°13.665 2°55.956 20.0398 0.098498 0.469348 -1.592577
2008-05-05 10:18:30 51°13.665 2°55.956 20.0413 0.098498 0.469348 -1.592577
2008-05-05 10:18:35 51°13.665 2°55.956 20.0428 0.098395 0.468847 -1.557753
2008-05-05 10:18:40 51°13.665 2°55.956 20.0444 0.098395 0.468854 -1.592577
2008-05-05 10:18:45 51°13.665 2°55.956 20.0447 0.098395 0.468861 -1.592577
2008-05-05 10:18:50 51°13.665 2°55.955 20.0465 0.098395 0.468868 -1.592577
2008-05-05 10:18:55 51°13.665 2°55.955 20.0472 0.098395 0.468875 -1.592577
2008-05-05 10:19:00 51°13.665 2°55.955 20.0488 0.098395 0.468875 -1.592577
2008-05-05 10:19:05 51°13.665 2°55.955 20.0494 0.098395 0.468888 -1.592577
2008-05-05 10:19:10 51°13.665 2°55.955 20.0496 0.098395 0.468895 -1.592577
2008-05-05 10:19:15 51°13.665 2°55.955 20.0499 0.098395 0.468902 -1.592577
2008-05-05 10:19:20 51°13.665 2°55.955 20.0502 0.098395 0.468909 -1.557753
2008-05-05 10:19:25 51°13.666 2°55.955 20.0507 0.098395 0.468916 -1.592577
2008-05-05 10:19:30 51°13.666 2°55.955 20.0513 0.098395 0.468916 -1.592577
2008-05-05 10:19:35 51°13.665 2°55.955 20.0494 0.098395 0.468922 -1.592577
2008-05-05 10:19:40 51°13.665 2°55.955 20.0504 0.098395 0.468929 -1.557753
2008-05-05 10:19:45 51°13.665 2°55.955 20.0511 0.098395 0.468943 -1.592577
2008-05-05 10:19:50 51°13.665 2°55.955 20.0499 0.098395 0.46895 -1.592577
2008-05-05 10:19:55 51°13.665 2°55.955 20.0489 0.098395 0.468957 -1.592577
2008-05-05 10:20:00 51°13.666 2°55.955 20.0508 0.098395 0.468957 -1.592577
2008-05-05 10:20:05 51°13.666 2°55.955 20.0532 0.098395 0.468957 -1.557753
2008-05-05 10:20:10 51°13.666 2°55.955 20.0555 0.098395 0.46897 -1.592577
2008-05-05 10:20:15 51°13.666 2°55.955 20.0559 0.098395 0.468977 -1.592577
2008-05-05 10:20:20 51°13.665 2°55.955 20.056 0.098395 0.468984 -1.592577
2008-05-05 10:20:25 51°13.666 2°55.955 20.055 0.098395 0.468991 -1.557753
2008-05-05 10:20:30 51°13.666 2°55.955 20.0546 0.098395 0.468991 -1.557753
2008-05-05 10:20:35 51°13.666 2°55.955 20.0571 0.098395 0.469004 -1.592577
2008-05-05 10:20:40 51°13.666 2°55.955 20.0598 0.098395 0.469011 -1.592577
2008-05-05 10:20:45 51°13.666 2°55.955 20.0607 0.098395 0.469018 -1.557753
2008-05-05 10:20:50 51°13.666 2°55.955 20.0616 0.098395 0.469025 -1.557753
2008-05-05 10:20:55 51°13.666 2°55.955 20.0632 0.098395 0.469039 -1.592577
2008-05-05 10:21:00 51°13.666 2°55.955 20.064 0.098395 0.469039 -1.592577
2008-05-05 10:21:05 51°13.666 2°55.955 20.0641 0.098395 0.469045 -1.557753
2008-05-05 10:21:10 51°13.666 2°55.955 20.0637 0.098395 0.469052 -1.592577
2008-05-05 10:21:15 51°13.666 2°55.955 20.0635 0.098395 0.469059 -1.592577
2008-05-05 10:21:20 51°13.666 2°55.955 20.0637 0.098395 0.469066 -1.592577
2008-05-05 10:21:25 51°13.666 2°55.955 20.0649 0.098395 0.469073 -1.592577
2008-05-05 10:21:30 51°13.666 2°55.955 20.0661 0.098395 0.469073 -1.592577
2008-05-05 10:21:35 51°13.666 2°55.955 20.0658 0.098395 0.469086 -1.592577
2008-05-05 10:21:40 51°13.666 2°55.955 20.0663 0.098395 0.469093 -1.592577
2008-05-05 10:21:45 51°13.666 2°55.955 20.0679 0.098395 0.469093 -1.592577
2008-05-05 10:21:50 51°13.666 2°55.955 20.069 0.098395 0.469107 -1.557753
2008-05-05 10:21:55 51°13.666 2°55.955 20.0695 0.098395 0.469114 -1.592577
2008-05-05 10:22:00 51°13.666 2°55.955 20.0706 0.098395 0.469114 -1.592577
2008-05-05 10:22:05 51°13.665 2°55.955 20.0724 0.098395 0.469121 -1.592577
2008-05-05 10:22:10 51°13.665 2°55.955 20.0733 0.098395 0.469127 -1.592577
2008-05-05 10:22:15 51°13.666 2°55.955 20.0748 0.098395 0.469134 -1.592577
2008-05-05 10:22:20 51°13.666 2°55.955 20.0752 0.098395 0.469148 -1.592577
2008-05-05 10:22:25 51°13.666 2°55.955 20.0757 0.098395 0.469155 -1.592577
2008-05-05 10:22:30 51°13.666 2°55.955 20.0775 0.098395 0.469155 -1.592577
2008-05-05 10:22:35 51°13.666 2°55.955 20.0746 0.098395 0.469162 -1.557753
2008-05-05 10:22:40 51°13.666 2°55.955 20.0694 0.098395 0.469169 -1.592577
2008-05-05 10:22:45 51°13.666 2°55.955 20.0748 0.098395 0.469175 -1.592577
2008-05-05 10:22:50 51°13.666 2°55.955 20.0759 0.098395 0.469182 -1.557753
2008-05-05 10:22:55 51°13.666 2°55.955 20.0784 0.098395 0.469196 -1.592577
2008-05-05 10:23:00 51°13.666 2°55.955 20.0785 0.098395 0.469196 -1.592577
2008-05-05 10:23:05 51°13.665 2°55.955 20.0776 0.098395 0.469203 -1.592577
2008-05-05 10:23:10 51°13.665 2°55.955 20.0773 0.098395 0.469203 -1.557753
2008-05-05 10:23:15 51°13.665 2°55.955 20.0809 0.098395 0.469216 -1.592577
2008-05-05 10:23:20 51°13.665 2°55.955 20.082 0.098395 0.469223 -1.592577
2008-05-05 10:23:25 51°13.665 2°55.955 20.0826 0.098395 0.46923 -1.592577
2008-05-05 10:23:30 51°13.665 2°55.954 20.0842 0.098395 0.46923 -1.592577
2008-05-05 10:23:35 51°13.665 2°55.954 20.0856 0.098395 0.469237 -1.592577
2008-05-05 10:23:40 51°13.665 2°55.954 20.0858 0.098395 0.469251 -1.557753
2008-05-05 10:23:45 51°13.665 2°55.954 20.088 0.098395 0.469251 -1.592577
2008-05-05 10:23:50 51°13.665 2°55.954 20.0875 0.098395 0.469258 -1.592577
2008-05-05 10:23:55 51°13.665 2°55.955 20.0879 0.098395 0.469271 -1.592577
2008-05-05 10:24:00 51°13.665 2°55.955 20.0877 0.098395 0.469271 -1.592577
2008-05-05 10:24:05 51°13.665 2°55.955 20.0868 0.098395 0.469278 -1.592577
2008-05-05 10:24:10 51°13.665 2°55.955 20.0882 0.098395 0.469285 -1.592577
2008-05-05 10:24:15 51°13.665 2°55.954 20.0892 0.098395 0.469292 -1.592577
2008-05-05 10:24:20 51°13.665 2°55.954 20.0892 0.098395 0.469299 -1.592577
2008-05-05 10:24:25 51°13.665 2°55.954 20.0893 0.098395 0.469305 -1.592577
2008-05-05 10:24:30 51°13.665 2°55.954 20.0905 0.098395 0.469305 -1.592577
2008-05-05 10:24:35 51°13.665 2°55.954 20.092 0.098395 0.469312 -1.592577
2008-05-05 10:24:40 51°13.665 2°55.955 20.0921 0.098395 0.469319 -1.592577
2008-05-05 10:24:45 51°13.665 2°55.955 20.0925 0.098395 0.469326 -1.592577
2008-05-05 10:24:50 51°13.665 2°55.955 20.0929 0.098395 0.469333 -1.592577
2008-05-05 10:24:55 51°13.665 2°55.955 20.094 0.098292 0.468838 -1.592577
2008-05-05 10:25:00 51°13.665 2°55.955 20.0945 0.098292 0.468838 -1.592577
2008-05-05 10:25:05 51°13.665 2°55.955 20.0942 0.098292 0.468845 -1.592577
2008-05-05 10:25:10 51°13.665 2°55.955 20.0934 0.098292 0.468859 -1.592577
2008-05-05 10:25:15 51°13.665 2°55.955 20.0943 0.098292 0.468859 -1.592577
2008-05-05 10:25:20 51°13.665 2°55.955 20.0938 0.098292 0.468865 -1.592577
2008-05-05 10:25:25 51°13.665 2°55.955 20.0943 0.098292 0.468872 -1.592577
2008-05-05 10:25:30 51°13.665 2°55.955 20.0952 0.098292 0.468872 -1.592577
2008-05-05 10:25:35 51°13.665 2°55.955 20.0956 0.098292 0.468886 -1.592577
2008-05-05 10:25:40 51°13.665 2°55.955 20.0948 0.098292 0.468893 -1.592577
2008-05-05 10:25:45 51°13.665 2°55.955 20.0998 0.098292 0.4689 -1.592577
2008-05-05 10:25:50 51°13.665 2°55.955 20.1015 0.098292 0.468907 -1.592577
2008-05-05 10:25:55 51°13.665 2°55.955 20.1021 0.098292 0.468913 -1.592577
2008-05-05 10:26:00 51°13.665 2°55.955 20.1031 0.098292 0.468913 -1.592577
2008-05-05 10:26:05 51°13.665 2°55.955 20.1032 0.098292 0.46892 -1.592577
2008-05-05 10:26:10 51°13.665 2°55.955 20.1026 0.098292 0.468927 -1.592577
2008-05-05 10:26:15 51°13.665 2°55.955 20.1018 0.098292 0.468941 -1.592577
2008-05-05 10:26:20 51°13.665 2°55.955 20.1013 0.098292 0.468941 -1.592577
2008-05-05 10:26:25 51°13.665 2°55.955 20.1012 0.098292 0.468954 -1.592577
2008-05-05 10:26:30 51°13.665 2°55.955 20.104 0.098292 0.468954 -1.592577
2008-05-05 10:26:35 51°13.665 2°55.955 20.1042 0.098292 0.468961 -1.592577
2008-05-05 10:26:40 51°13.665 2°55.955 20.107 0.098292 0.468968 -1.592577
2008-05-05 10:26:45 51°13.665 2°55.955 20.1072 0.098292 0.468975 -1.592577
2008-05-05 10:26:50 51°13.665 2°55.955 20.1069 0.098292 0.468982 -1.592577
2008-05-05 10:26:55 51°13.665 2°55.955 20.1074 0.098292 0.468989 -1.592577
2008-05-05 10:27:00 51°13.665 2°55.955 20.108 0.098292 0.468989 -1.592577
2008-05-05 10:27:05 51°13.665 2°55.955 20.1092 0.098292 0.468989 -1.592577
2008-05-05 10:27:10 51°13.665 2°55.955 20.1079 0.098292 0.469002 -1.592577
2008-05-05 10:27:15 51°13.665 2°55.955 20.108 0.098292 0.469009 -1.592577
2008-05-05 10:27:20 51°13.665 2°55.955 20.1087 0.098292 0.469016 -1.592577
2008-05-05 10:27:25 51°13.665 2°55.955 20.1078 0.098292 0.469023 -1.592577
2008-05-05 10:27:30 51°13.665 2°55.955 20.1079 0.098292 0.469023 -1.592577
2008-05-05 10:27:35 51°13.665 2°55.955 20.1093 0.098292 0.469037 -1.592577
2008-05-05 10:27:40 51°13.665 2°55.955 20.1099 0.098292 0.469043 -1.592577
2008-05-05 10:27:45 51°13.665 2°55.955 20.111 0.098292 0.46905 -1.592577
2008-05-05 10:27:50 51°13.665 2°55.955 20.1119 0.098292 0.469057 -1.592577
2008-05-05 10:27:55 51°13.665 2°55.955 20.1122 0.098292 0.469064 -1.592577
2008-05-05 10:28:00 51°13.665 2°55.955 20.1129 0.098292 0.469064 -1.592577
2008-05-05 10:28:05 51°13.665 2°55.955 20.1125 0.098292 0.469064 -1.592577
2008-05-05 10:28:10 51°13.665 2°55.955 20.1121 0.098292 0.469078 -1.592577
2008-05-05 10:28:15 51°13.665 2°55.955 20.1121 0.098292 0.469085 -1.592577
2008-05-05 10:28:20 51°13.665 2°55.955 20.112 0.098292 0.469091 -1.592577
2008-05-05 10:28:25 51°13.665 2°55.955 20.112 0.098292 0.469098 -1.592577
2008-05-05 10:28:30 51°13.665 2°55.955 20.1103 0.098292 0.469098 -1.592577
2008-05-05 10:28:35 51°13.665 2°55.955 20.1117 0.098292 0.469105 -1.592577
2008-05-05 10:28:40 51°13.665 2°55.955 20.1127 0.098292 0.469112 -1.592577
2008-05-05 10:28:45 51°13.665 2°55.955 20.114 0.098292 0.469119 -1.592577
2008-05-05 10:28:50 51°13.665 2°55.955 20.1148 0.098292 0.469126 -1.592577
2008-05-05 10:28:55 51°13.665 2°55.955 20.116 0.098292 0.469139 -1.592577
2008-05-05 10:29:00 51°13.665 2°55.955 20.1165 0.098292 0.469139 -1.592577
2008-05-05 10:29:05 51°13.665 2°55.955 20.1175 0.098292 0.469146 -1.592577
2008-05-05 10:29:10 51°13.665 2°55.955 20.1183 0.098292 0.469146 -1.592577
2008-05-05 10:29:15 51°13.665 2°55.955 20.1177 0.098292 0.46916 -1.592577
2008-05-05 10:29:20 51°13.665 2°55.955 20.1176 0.098292 0.469167 -1.592577
2008-05-05 10:29:25 51°13.665 2°55.955 20.1171 0.098292 0.469181 -1.592577
2008-05-05 10:29:30 51°13.665 2°55.955 20.1169 0.098292 0.469181 -1.592577
2008-05-05 10:29:35 51°13.665 2°55.955 20.1167 0.098292 0.469181 -1.592577
2008-05-05 10:29:40 51°13.665 2°55.955 20.1172 0.098292 0.469187 -1.592577
2008-05-05 10:29:45 51°13.665 2°55.955 20.1183 0.098292 0.469194 -1.592577
2008-05-05 10:29:50 51°13.665 2°55.955 20.123 0.098292 0.469208 -1.592577
2008-05-05 10:29:55 51°13.665 2°55.955 20.1258 0.098292 0.469208 -1.592577
2008-05-05 10:30:00 51°13.665 2°55.955 20.1262 0.098292 0.469208 -1.592577
2008-05-05 10:30:05 51°13.665 2°55.955 20.1266 0.098292 0.469215 -1.592577
2008-05-05 10:30:10 51°13.665 2°55.955 20.1268 0.098292 0.469228 -1.592577
2008-05-05 10:30:15 51°13.665 2°55.955 20.1269 0.098292 0.469235 -1.592577
2008-05-05 10:30:20 51°13.665 2°55.955 20.1256 0.098292 0.469242 -1.592577
2008-05-05 10:30:25 51°13.666 2°55.955 20.1257 0.098292 0.469249 -1.592577
2008-05-05 10:30:30 51°13.666 2°55.955 20.1261 0.098292 0.469249 -1.592577
2008-05-05 10:30:35 51°13.666 2°55.955 20.1257 0.098292 0.469249 -1.592577
2008-05-05 10:30:40 51°13.666 2°55.955 20.1236 0.098292 0.469263 -1.592577
2008-05-05 10:30:45 51°13.666 2°55.955 20.1227 0.098292 0.46927 -1.592577
2008-05-05 10:30:50 51°13.666 2°55.955 20.1224 0.098292 0.469276 -1.592577
2008-05-05 10:30:55 51°13.666 2°55.955 20.1249 0.098292 0.469283 -1.592577
2008-05-05 10:31:00 51°13.666 2°55.955 20.1239 0.098292 0.469283 -1.592577
2008-05-05 10:31:05 51°13.666 2°55.955 20.1234 0.098292 0.469297 -1.592577
2008-05-05 10:31:10 51°13.666 2°55.955 20.1249 0.098292 0.469297 -1.592577
2008-05-05 10:31:15 51°13.666 2°55.955 20.1271 0.098292 0.469311 -1.592577
2008-05-05 10:31:20 51°13.666 2°55.955 20.1273 0.098292 0.469318 -1.592577
2008-05-05 10:31:25 51°13.666 2°55.955 20.1274 0.098189 0.468816 -1.592577
2008-05-05 10:31:30 51°13.666 2°55.955 20.1302 0.098189 0.468816 -1.592577
2008-05-05 10:31:35 51°13.666 2°55.955 20.1309 0.098189 0.468822 -1.592577
2008-05-05 10:31:40 51°13.666 2°55.955 20.1313 0.098189 0.468829 -1.592577
2008-05-05 10:31:45 51°13.666 2°55.955 20.1306 0.098189 0.468836 -1.592577
2008-05-05 10:31:50 51°13.666 2°55.955 20.1304 0.098189 0.468843 -1.592577
2008-05-05 10:31:55 51°13.665 2°55.955 20.1304 0.098189 0.468857 -1.592577
2008-05-05 10:32:00 51°13.665 2°55.954 20.1303 0.098189 0.468857 -1.592577
2008-05-05 10:32:05 51°13.665 2°55.954 20.1306 0.098189 0.468864 -1.627401
2008-05-05 10:32:10 51°13.665 2°55.954 20.13 0.098189 0.46887 -1.592577
2008-05-05 10:32:15 51°13.665 2°55.955 20.1323 0.098189 0.468877 -1.592577
2008-05-05 10:32:20 51°13.665 2°55.954 20.1337 0.098189 0.468877 -1.592577
2008-05-05 10:32:25 51°13.665 2°55.954 20.1342 0.098189 0.468891 -1.627401
2008-05-05 10:32:30 51°13.665 2°55.954 20.1349 0.098189 0.468891 -1.627401
2008-05-05 10:32:35 51°13.665 2°55.954 20.1349 0.098189 0.468898 -1.592577
2008-05-05 10:32:40 51°13.665 2°55.954 20.1354 0.098189 0.468905 -1.592577
2008-05-05 10:32:45 51°13.666 2°55.954 20.1361 0.098189 0.468911 -1.592577
2008-05-05 10:32:50 51°13.666 2°55.954 20.1364 0.098189 0.468918 -1.592577
2008-05-05 10:32:55 51°13.666 2°55.953 20.1379 0.098189 0.468932 -1.592577
2008-05-05 10:33:00 51°13.665 2°55.953 20.1388 0.098189 0.468932 -1.592577
2008-05-05 10:33:05 51°13.665 2°55.953 20.1379 0.098189 0.468932 -1.592577
2008-05-05 10:33:10 51°13.665 2°55.953 20.1386 0.098189 0.468946 -1.627401
2008-05-05 10:33:15 51°13.665 2°55.953 20.1394 0.098189 0.468953 -1.592577
2008-05-05 10:33:20 51°13.665 2°55.953 20.1402 0.098189 0.468959 -1.627401
2008-05-05 10:33:24 51°13.665 2°55.953 20.1414 0.098189 0.468973 -1.592577
2008-05-05 10:33:30 51°13.665 2°55.953 20.1434 0.098189 0.468973 -1.592577
2008-05-05 10:33:35 51°13.665 2°55.953 20.1445 0.098189 0.46898 -1.592577